Wetterdaten: Sonntag, 17.03.2013
Datum Zeit Temp. Aussen +5cm Feuchte Auss Luftdruck Regen Sonnenschein Regendauer UV Solar Windben
17.03.2013 00:00 5,0 C 3,4 C 59 % 1003,4 hPa 0,0 l/m 0 min 0 min 0,0 UV-I 0 W/m 23,2 km/h (4 Bft)
17.03.2013 00:02 5,0 C 3,4 C 59 % 1003,4 hPa 0,0 l/m 0 min 0 min 0,0 UV-I 0 W/m 18,0 km/h (3 Bft)
17.03.2013 00:04 5,0 C 3,4 C 59 % 1003,4 hPa 0,0 l/m 0 min 0 min 0,0 UV-I 0 W/m 23,2 km/h (4 Bft)
17.03.2013 00:06 5,1 C 3,4 C 59 % 1003,5 hPa 0,0 l/m 0 min 0 min 0,0 UV-I 0 W/m 18,0 km/h (3 Bft)
17.03.2013 00:08 5,0 C 3,4 C 59 % 1003,2 hPa 0,0 l/m 0 min 0 min 0,0 UV-I 0 W/m 23,2 km/h (4 Bft)
17.03.2013 00:10 5,1 C 3,4 C 60 % 1003,2 hPa 0,0 l/m 0 min 0 min 0,0 UV-I 0 W/m 15,4 km/h (3 Bft)
17.03.2013 00:12 5,1 C 3,4 C 59 % 1003,1 hPa 0,0 l/m 0 min 0 min 0,0 UV-I 0 W/m 25,7 km/h (4 Bft)
17.03.2013 00:14 5,1 C 3,4 C 59 % 1003,2 hPa 0,0 l/m 0 min 0 min 0,0 UV-I 0 W/m 25,7 km/h (4 Bft)
17.03.2013 00:16 5,1 C 3,4 C 59 % 1003,2 hPa 0,0 l/m 0 min 0 min 0,0 UV-I 0 W/m 20,6 km/h (4 Bft)
17.03.2013 00:18 5,1 C 3,4 C 59 % 1003,2 hPa 0,0 l/m 0 min 0 min 0,0 UV-I 0 W/m 23,2 km/h (4 Bft)
17.03.2013 00:20 5,1 C 3,4 C 59 % 1003,2 hPa 0,0 l/m 0 min 0 min 0,0 UV-I 0 W/m 23,2 km/h (4 Bft)
17.03.2013 00:22 5,1 C 3,4 C 59 % 1003,2 hPa 0,0 l/m 0 min 0 min 0,0 UV-I 0 W/m 18,0 km/h (3 Bft)
17.03.2013 00:24 5,1 C 3,4 C 59 % 1003,1 hPa 0,0 l/m 0 min 0 min 0,0 UV-I 0 W/m 25,7 km/h (4 Bft)
17.03.2013 00:26 5,1 C 3,4 C 59 % 1003,1 hPa 0,0 l/m 0 min 0 min 0,0 UV-I 0 W/m 15,4 km/h (3 Bft)
17.03.2013 00:28 5,1 C 3,4 C 59 % 1003,1 hPa 0,0 l/m 0 min 0 min 0,0 UV-I 0 W/m 12,9 km/h (3 Bft)
17.03.2013 00:30 5,1 C 3,4 C 59 % 1003,1 hPa 0,0 l/m 0 min 0 min 0,0 UV-I 0 W/m 15,4 km/h (3 Bft)
17.03.2013 00:32 5,1 C 3,4 C 59 % 1003,0 hPa 0,0 l/m 0 min 0 min 0,0 UV-I 0 W/m 18,0 km/h (3 Bft)
17.03.2013 00:34 5,1 C 3,4 C 59 % 1003,0 hPa 0,0 l/m 0 min 0 min 0,0 UV-I 0 W/m 15,4 km/h (3 Bft)
17.03.2013 00:36 5,1 C 3,4 C 59 % 1003,0 hPa 0,0 l/m 0 min 0 min 0,0 UV-I 0 W/m 18,0 km/h (3 Bft)
17.03.2013 00:38 5,1 C 3,4 C 59 % 1002,9 hPa 0,0 l/m 0 min 0 min 0,0 UV-I 0 W/m 20,6 km/h (4 Bft)
17.03.2013 00:40 5,1 C 3,4 C 59 % 1003,0 hPa 0,0 l/m 0 min 0 min 0,0 UV-I 0 W/m 20,6 km/h (4 Bft)
17.03.2013 00:42 5,1 C 3,4 C 59 % 1002,9 hPa 0,0 l/m 0 min 0 min 0,0 UV-I 0 W/m 25,7 km/h (4 Bft)
17.03.2013 00:44 5,1 C 3,4 C 60 % 1002,9 hPa 0,0 l/m 0 min 0 min 0,0 UV-I 0 W/m 10,3 km/h (2 Bft)
17.03.2013 00:46 5,1 C 3,4 C 60 % 1002,8 hPa 0,0 l/m 0 min 0 min 0,0 UV-I 0 W/m 15,4 km/h (3 Bft)
17.03.2013 00:48 5,1 C 3,4 C 60 % 1002,9 hPa 0,0 l/m 0 min 0 min 0,0 UV-I 0 W/m 18,0 km/h (3 Bft)
17.03.2013 00:50 5,1 C 3,4 C 60 % 1002,8 hPa 0,0 l/m 0 min 0 min 0,0 UV-I 0 W/m 15,4 km/h (3 Bft)
17.03.2013 00:52 5,1 C 3,4 C 60 % 1002,8 hPa 0,0 l/m 0 min 0 min 0,0 UV-I 0 W/m 18,0 km/h (3 Bft)
17.03.2013 00:54 5,1 C 3,4 C 60 % 1002,7 hPa 0,0 l/m 0 min 0 min 0,0 UV-I 0 W/m 28,3 km/h (4 Bft)
17.03.2013 00:56 5,1 C 3,4 C 60 % 1002,6 hPa 0,0 l/m 0 min 0 min 0,0 UV-I 0 W/m 20,6 km/h (4 Bft)
17.03.2013 00:58 5,1 C 3,4 C 60 % 1002,6 hPa 0,0 l/m 0 min 0 min 0,0 UV-I 0 W/m 15,4 km/h (3 Bft)
17.03.2013 01:00 5,0 C 3,4 C 60 % 1002,6 hPa 0,0 l/m 0 min 0 min 0,0 UV-I 0 W/m 15,4 km/h (3 Bft)
17.03.2013 01:02 5,0 C 3,4 C 60 % 1002,6 hPa 0,0 l/m 0 min 0 min 0,0 UV-I 0 W/m 20,6 km/h (4 Bft)
17.03.2013 01:04 5,0 C 3,4 C 60 % 1002,7 hPa 0,0 l/m 0 min 0 min 0,0 UV-I 0 W/m 30,9 km/h (5 Bft)
17.03.2013 01:06 5,0 C 3,4 C 60 % 1002,5 hPa 0,0 l/m 0 min 0 min 0,0 UV-I 0 W/m 12,9 km/h (3 Bft)
17.03.2013 01:08 5,0 C 3,4 C 61 % 1002,5 hPa 0,0 l/m 0 min 0 min 0,0 UV-I 0 W/m 15,4 km/h (3 Bft)
17.03.2013 01:10 4,9 C 3,4 C 61 % 1002,5 hPa 0,0 l/m 0 min 0 min 0,0 UV-I 0 W/m 23,2 km/h (4 Bft)
17.03.2013 01:12 4,9 C 3,4 C 61 % 1002,5 hPa 0,0 l/m 0 min 0 min 0,0 UV-I 0 W/m 12,9 km/h (3 Bft)
17.03.2013 01:14 4,9 C 3,4 C 61 % 1002,4 hPa 0,0 l/m 0 min 0 min 0,0 UV-I 0 W/m 20,6 km/h (4 Bft)
17.03.2013 01:16 4,9 C 3,4 C 61 % 1002,4 hPa 0,0 l/m 0 min 0 min 0,0 UV-I 0 W/m 18,0 km/h (3 Bft)
17.03.2013 01:18 4,8 C 2,9 C 61 % 1002,4 hPa 0,0 l/m 0 min 0 min 0,0 UV-I 0 W/m 23,2 km/h (4 Bft)
17.03.2013 01:20 4,8 C 2,9 C 61 % 1002,4 hPa 0,0 l/m 0 min 0 min 0,0 UV-I 0 W/m 12,9 km/h (3 Bft)
17.03.2013 01:22 4,8 C 2,9 C 61 % 1002,4 hPa 0,0 l/m 0 min 0 min 0,0 UV-I 0 W/m 18,0 km/h (3 Bft)
17.03.2013 01:24 4,8 C 3,4 C 61 % 1002,3 hPa 0,0 l/m 0 min 0 min 0,0 UV-I 0 W/m 15,4 km/h (3 Bft)
17.03.2013 01:26 4,8 C 2,9 C 61 % 1002,3 hPa 0,0 l/m 0 min 0 min 0,0 UV-I 0 W/m 15,4 km/h (3 Bft)
17.03.2013 01:28 4,8 C 3,4 C 61 % 1002,3 hPa 0,0 l/m 0 min 0 min 0,0 UV-I 0 W/m 15,4 km/h (3 Bft)
17.03.2013 01:30 4,8 C 3,4 C 61 % 1002,3 hPa 0,0 l/m 0 min 0 min 0,0 UV-I 0 W/m 25,7 km/h (4 Bft)
17.03.2013 01:32 4,8 C 3,4 C 61 % 1002,3 hPa 0,0 l/m 0 min 0 min 0,0 UV-I 0 W/m 20,6 km/h (4 Bft)
17.03.2013 01:34 4,8 C 3,4 C 61 % 1002,3 hPa 0,0 l/m 0 min 0 min 0,0 UV-I 0 W/m 20,6 km/h (4 Bft)
17.03.2013 01:36 4,8 C 3,4 C 61 % 1002,2 hPa 0,0 l/m 0 min 0 min 0,0 UV-I 0 W/m 10,3 km/h (2 Bft)
17.03.2013 01:38 4,8 C 3,4 C 61 % 1002,2 hPa 0,0 l/m 0 min 0 min 0,0 UV-I 0 W/m 25,7 km/h (4 Bft)
17.03.2013 01:40 4,7 C 3,4 C 61 % 1002,2 hPa 0,0 l/m 0 min 0 min 0,0 UV-I 0 W/m 20,6 km/h (4 Bft)
17.03.2013 01:42 4,7 C 3,4 C 61 % 1002,2 hPa 0,0 l/m 0 min 0 min 0,0 UV-I 0 W/m 23,2 km/h (4 Bft)
17.03.2013 01:44 4,7 C 3,4 C 61 % 1002,2 hPa 0,0 l/m 0 min 0 min 0,0 UV-I 0 W/m 18,0 km/h (3 Bft)
17.03.2013 01:46 4,7 C 2,9 C 61 % 1002,2 hPa 0,0 l/m 0 min 0 min 0,0 UV-I 0 W/m 18,0 km/h (3 Bft)
17.03.2013 01:48 4,7 C 3,4 C 61 % 1002,2 hPa 0,0 l/m 0 min 0 min 0,0 UV-I 0 W/m 28,3 km/h (4 Bft)
17.03.2013 01:50 4,7 C 3,4 C 61 % 1002,2 hPa 0,0 l/m 0 min 0 min 0,0 UV-I 0 W/m 23,2 km/h (4 Bft)
17.03.2013 01:52 4,7 C 3,4 C 61 % 1002,2 hPa 0,0 l/m 0 min 0 min 0,0 UV-I 0 W/m 15,4 km/h (3 Bft)
17.03.2013 01:54 4,7 C 3,4 C 62 % 1002,2 hPa 0,0 l/m 0 min 0 min 0,0 UV-I 0 W/m 20,6 km/h (4 Bft)
17.03.2013 01:56 4,7 C 3,4 C 62 % 1002,2 hPa 0,0 l/m 0 min 0 min 0,0 UV-I 0 W/m 12,9 km/h (3 Bft)
17.03.2013 01:58 4,7 C 3,4 C 61 % 1002,1 hPa 0,0 l/m 0 min 0 min 0,0 UV-I 0 W/m 23,2 km/h (4 Bft)
17.03.2013 02:00 4,7 C 3,4 C 61 % 1002,1 hPa 0,0 l/m 0 min 0 min 0,0 UV-I 0 W/m 28,3 km/h (4 Bft)
17.03.2013 02:02 4,7 C 3,4 C 61 % 1002,0 hPa 0,0 l/m 0 min 0 min 0,0 UV-I 0 W/m 12,9 km/h (3 Bft)
17.03.2013 02:04 4,7 C 3,4 C 61 % 1002,0 hPa 0,0 l/m 0 min 0 min 0,0 UV-I 0 W/m 15,4 km/h (3 Bft)
17.03.2013 02:06 4,7 C 3,4 C 61 % 1001,9 hPa 0,0 l/m 0 min 0 min 0,0 UV-I 0 W/m 23,2 km/h (4 Bft)
17.03.2013 02:08 4,7 C 3,4 C 61 % 1001,9 hPa 0,0 l/m 0 min 0 min 0,0 UV-I 0 W/m 25,7 km/h (4 Bft)
17.03.2013 02:10 4,7 C 3,4 C 61 % 1001,9 hPa 0,0 l/m 0 min 0 min 0,0 UV-I 0 W/m 28,3 km/h (4 Bft)
17.03.2013 02:12 4,7 C 3,4 C 61 % 1001,8 hPa 0,0 l/m 0 min 0 min 0,0 UV-I 0 W/m 20,6 km/h (4 Bft)
17.03.2013 02:14 4,7 C 2,9 C 62 % 1001,9 hPa 0,0 l/m 0 min 0 min 0,0 UV-I 0 W/m 28,3 km/h (4 Bft)
17.03.2013 02:16 4,7 C 2,9 C 64 % 1001,9 hPa 0,0 l/m 0 min 0 min 0,0 UV-I 0 W/m 36,0 km/h (5 Bft)
17.03.2013 02:18 4,6 C 2,3 C 66 % 1001,9 hPa 0,0 l/m 0 min 0 min 0,0 UV-I 0 W/m 25,7 km/h (4 Bft)
17.03.2013 02:20 4,6 C 2,3 C 67 % 1001,8 hPa 0,0 l/m 0 min 0 min 0,0 UV-I 0 W/m 30,9 km/h (5 Bft)
17.03.2013 02:22 4,4 C 1,8 C 68 % 1001,7 hPa 0,0 l/m 0 min 0 min 0,0 UV-I 0 W/m 23,2 km/h (4 Bft)
17.03.2013 02:24 4,4 C 1,8 C 69 % 1001,6 hPa 0,0 l/m 0 min 0 min 0,0 UV-I 0 W/m 20,6 km/h (4 Bft)
17.03.2013 02:26 4,3 C 1,8 C 69 % 1001,5 hPa 0,0 l/m 0 min 0 min 0,0 UV-I 0 W/m 28,3 km/h (4 Bft)
17.03.2013 02:28 4,2 C 1,8 C 70 % 1001,6 hPa 0,0 l/m 0 min 0 min 0,0 UV-I 0 W/m 18,0 km/h (3 Bft)
17.03.2013 02:30 4,2 C 1,8 C 70 % 1001,5 hPa 0,0 l/m 0 min 0 min 0,0 UV-I 0 W/m 23,2 km/h (4 Bft)
17.03.2013 02:32 4,1 C 1,8 C 70 % 1001,5 hPa 0,0 l/m 0 min 0 min 0,0 UV-I 0 W/m 33,5 km/h (5 Bft)
17.03.2013 02:34 4,1 C 1,8 C 70 % 1001,5 hPa 0,0 l/m 0 min 0 min 0,0 UV-I 0 W/m 20,6 km/h (4 Bft)
17.03.2013 02:36 4,0 C 1,8 C 69 % 1001,5 hPa 0,0 l/m 0 min 0 min 0,0 UV-I 0 W/m 28,3 km/h (4 Bft)
17.03.2013 02:38 4,0 C 2,3 C 70 % 1001,4 hPa 0,0 l/m 0 min 0 min 0,0 UV-I 0 W/m 28,3 km/h (4 Bft)
17.03.2013 02:40 4,0 C 2,3 C 70 % 1001,5 hPa 0,0 l/m 0 min 0 min 0,0 UV-I 0 W/m 20,6 km/h (4 Bft)
17.03.2013 02:42 4,0 C 2,3 C 70 % 1001,3 hPa 0,0 l/m 0 min 0 min 0,0 UV-I 0 W/m 23,2 km/h (4 Bft)
17.03.2013 02:44 4,0 C 2,3 C 70 % 1001,3 hPa 0,0 l/m 0 min 0 min 0,0 UV-I 0 W/m 23,2 km/h (4 Bft)
17.03.2013 02:46 4,0 C 2,3 C 70 % 1001,3 hPa 0,0 l/m 0 min 0 min 0,0 UV-I 0 W/m 18,0 km/h (3 Bft)
17.03.2013 02:48 4,0 C 2,3 C 70 % 1001,2 hPa 0,0 l/m 0 min 0 min 0,0 UV-I 0 W/m 20,6 km/h (4 Bft)
17.03.2013 02:50 3,9 C 2,3 C 70 % 1001,2 hPa 0,0 l/m 0 min 0 min 0,0 UV-I 0 W/m 18,0 km/h (3 Bft)
17.03.2013 02:52 3,9 C 2,3 C 70 % 1001,2 hPa 0,0 l/m 0 min 0 min 0,0 UV-I 0 W/m 23,2 km/h (4 Bft)
17.03.2013 02:54 3,9 C 2,3 C 70 % 1001,2 hPa 0,0 l/m 0 min 0 min 0,0 UV-I 0 W/m 20,6 km/h (4 Bft)
17.03.2013 02:56 3,9 C 2,3 C 70 % 1001,2 hPa 0,0 l/m 0 min 0 min 0,0 UV-I 0 W/m 12,9 km/h (3 Bft)
17.03.2013 02:58 3,9 C 2,3 C 70 % 1001,2 hPa 0,0 l/m 0 min 0 min 0,0 UV-I 0 W/m 23,2 km/h (4 Bft)
17.03.2013 03:00 3,9 C 2,3 C 70 % 1001,2 hPa 0,0 l/m 0 min 0 min 0,0 UV-I 0 W/m 18,0 km/h (3 Bft)
17.03.2013 03:02 3,9 C 2,3 C 70 % 1001,1 hPa 0,0 l/m 0 min 0 min 0,0 UV-I 0 W/m 25,7 km/h (4 Bft)
17.03.2013 03:04 3,9 C 2,3 C 70 % 1001,1 hPa 0,0 l/m 0 min 0 min 0,0 UV-I 0 W/m 15,4 km/h (3 Bft)
17.03.2013 03:06 3,8 C 2,3 C 70 % 1001,0 hPa 0,0 l/m 0 min 0 min 0,0 UV-I 0 W/m 18,0 km/h (3 Bft)
17.03.2013 03:08 3,8 C 2,3 C 70 % 1001,0 hPa 0,0 l/m 0 min 0 min 0,0 UV-I 0 W/m 18,0 km/h (3 Bft)
17.03.2013 03:10 3,8 C 2,3 C 70 % 1001,0 hPa 0,0 l/m 0 min 0 min 0,0 UV-I 0 W/m 20,6 km/h (4 Bft)
17.03.2013 03:12 3,8 C 2,3 C 70 % 1000,9 hPa 0,0 l/m 0 min 0 min 0,0 UV-I 0 W/m 23,2 km/h (4 Bft)
17.03.2013 03:14 3,8 C 2,3 C 70 % 1000,9 hPa 0,0 l/m 0 min 0 min 0,0 UV-I 0 W/m 23,2 km/h (4 Bft)
17.03.2013 03:16 3,8 C 2,3 C 69 % 1000,9 hPa 0,0 l/m 0 min 0 min 0,0 UV-I 0 W/m 20,6 km/h (4 Bft)
17.03.2013 03:18 3,8 C 2,3 C 69 % 1000,9 hPa 0,0 l/m 0 min 0 min 0,0 UV-I 0 W/m 18,0 km/h (3 Bft)
17.03.2013 03:20 3,8 C 2,3 C 70 % 1000,9 hPa 0,0 l/m 0 min 0 min 0,0 UV-I 0 W/m 15,4 km/h (3 Bft)
17.03.2013 03:22 3,8 C 2,3 C 70 % 1000,8 hPa 0,0 l/m 0 min 0 min 0,0 UV-I 0 W/m 12,9 km/h (3 Bft)
17.03.2013 03:24 3,8 C 2,3 C 69 % 1000,8 hPa 0,0 l/m 0 min 0 min 0,0 UV-I 0 W/m 20,6 km/h (4 Bft)
17.03.2013 03:26 3,8 C 2,3 C 69 % 1000,9 hPa 0,0 l/m 0 min 0 min 0,0 UV-I 0 W/m 23,2 km/h (4 Bft)
17.03.2013 03:28 3,8 C 2,3 C 69 % 1000,8 hPa 0,0 l/m 0 min 0 min 0,0 UV-I 0 W/m 12,9 km/h (3 Bft)
17.03.2013 03:30 3,8 C 2,3 C 69 % 1000,8 hPa 0,0 l/m 0 min 0 min 0,0 UV-I 0 W/m 20,6 km/h (4 Bft)
17.03.2013 03:32 3,8 C 2,3 C 69 % 1000,8 hPa 0,0 l/m 0 min 0 min 0,0 UV-I 0 W/m 23,2 km/h (4 Bft)
17.03.2013 03:34 3,8 C 2,3 C 69 % 1000,7 hPa 0,0 l/m 0 min 0 min 0,0 UV-I 0 W/m 18,0 km/h (3 Bft)
17.03.2013 03:36 3,8 C 2,3 C 69 % 1000,7 hPa 0,0 l/m 0 min 0 min 0,0 UV-I 0 W/m 20,6 km/h (4 Bft)
17.03.2013 03:38 3,8 C 2,3 C 69 % 1000,7 hPa 0,0 l/m 0 min 0 min 0,0 UV-I 0 W/m 15,4 km/h (3 Bft)
17.03.2013 03:40 3,8 C 2,3 C 69 % 1000,7 hPa 0,0 l/m 0 min 0 min 0,0 UV-I 0 W/m 10,3 km/h (2 Bft)
17.03.2013 03:42 3,8 C 2,3 C 69 % 1000,7 hPa 0,0 l/m 0 min 0 min 0,0 UV-I 0 W/m 10,3 km/h (2 Bft)
17.03.2013 03:44 3,8 C 2,3 C 69 % 1000,7 hPa 0,0 l/m 0 min 0 min 0,0 UV-I 0 W/m 12,9 km/h (3 Bft)
17.03.2013 03:46 3,8 C 2,3 C 69 % 1000,6 hPa 0,0 l/m 0 min 0 min 0,0 UV-I 0 W/m 15,4 km/h (3 Bft)
17.03.2013 03:48 3,8 C 2,3 C 70 % 1000,6 hPa 0,0 l/m 0 min 0 min 0,0 UV-I 0 W/m 12,9 km/h (3 Bft)
17.03.2013 03:50 3,8 C 2,3 C 70 % 1000,6 hPa 0,0 l/m 0 min 0 min 0,0 UV-I 0 W/m 23,2 km/h (4 Bft)
17.03.2013 03:52 3,8 C 2,3 C 69 % 1000,6 hPa 0,0 l/m 0 min 0 min 0,0 UV-I 0 W/m 23,2 km/h (4 Bft)
17.03.2013 03:54 3,8 C 2,3 C 69 % 1000,5 hPa 0,0 l/m 0 min 0 min 0,0 UV-I 0 W/m 23,2 km/h (4 Bft)
17.03.2013 03:56 3,8 C 2,3 C 69 % 1000,5 hPa 0,0 l/m 0 min 0 min 0,0 UV-I 0 W/m 10,3 km/h (2 Bft)
17.03.2013 03:58 3,8 C 2,3 C 69 % 1000,5 hPa 0,0 l/m 0 min 0 min 0,0 UV-I 0 W/m 18,0 km/h (3 Bft)
17.03.2013 04:00 3,8 C 2,3 C 69 % 1000,4 hPa 0,0 l/m 0 min 0 min 0,0 UV-I 0 W/m 7,7 km/h (2 Bft)
17.03.2013 04:02 3,8 C 2,3 C 69 % 1000,3 hPa 0,0 l/m 0 min 0 min 0,0 UV-I 0 W/m 18,0 km/h (3 Bft)
17.03.2013 04:04 3,9 C 2,3 C 69 % 1000,3 hPa 0,0 l/m 0 min 0 min 0,0 UV-I 0 W/m 12,9 km/h (3 Bft)
17.03.2013 04:06 3,9 C 2,3 C 69 % 1000,4 hPa 0,0 l/m 0 min 0 min 0,0 UV-I 0 W/m 20,6 km/h (4 Bft)
17.03.2013 04:08 3,9 C 2,3 C 69 % 1000,3 hPa 0,0 l/m 0 min 0 min 0,0 UV-I 0 W/m 18,0 km/h (3 Bft)
17.03.2013 04:10 3,9 C 2,3 C 69 % 1000,4 hPa 0,0 l/m 0 min 0 min 0,0 UV-I 0 W/m 10,3 km/h (2 Bft)
17.03.2013 04:12 3,9 C 2,3 C 69 % 1000,3 hPa 0,0 l/m 0 min 0 min 0,0 UV-I 0 W/m 15,4 km/h (3 Bft)
17.03.2013 04:14 3,9 C 2,3 C 70 % 1000,4 hPa 0,0 l/m 0 min 0 min 0,0 UV-I 0 W/m 18,0 km/h (3 Bft)
17.03.2013 04:16 3,9 C 2,3 C 70 % 1000,3 hPa 0,0 l/m 0 min 2 min 0,0 UV-I 0 W/m 18,0 km/h (3 Bft)
17.03.2013 04:18 3,9 C 1,8 C 72 % 1000,3 hPa 0,0 l/m 0 min 2 min 0,0 UV-I 0 W/m 25,7 km/h (4 Bft)
17.03.2013 04:20 3,8 C 1,2 C 73 % 1000,4 hPa 0,0 l/m 0 min 2 min 0,0 UV-I 0 W/m 12,9 km/h (3 Bft)
17.03.2013 04:22 3,8 C 0,7 C 74 % 1000,3 hPa 0,2 l/m 0 min 2 min 0,0 UV-I 0 W/m 20,6 km/h (4 Bft)
17.03.2013 04:24 3,8 C 0,7 C 76 % 1000,4 hPa 0,0 l/m 0 min 2 min 0,0 UV-I 0 W/m 18,0 km/h (3 Bft)
17.03.2013 04:26 3,7 C 0,7 C 76 % 1000,4 hPa 0,0 l/m 0 min 2 min 0,0 UV-I 0 W/m 12,9 km/h (3 Bft)
17.03.2013 04:28 3,7 C 0,7 C 77 % 1000,3 hPa 0,0 l/m 0 min 2 min 0,0 UV-I 0 W/m 10,3 km/h (2 Bft)
17.03.2013 04:30 3,7 C 0,7 C 78 % 1000,3 hPa 0,0 l/m 0 min 2 min 0,0 UV-I 0 W/m 7,7 km/h (2 Bft)
17.03.2013 04:32 3,6 C 0,7 C 78 % 1000,4 hPa 0,0 l/m 0 min 2 min 0,0 UV-I 0 W/m 12,9 km/h (3 Bft)
17.03.2013 04:34 3,6 C 0,7 C 79 % 1000,3 hPa 0,0 l/m 0 min 2 min 0,0 UV-I 0 W/m 10,3 km/h (2 Bft)
17.03.2013 04:36 3,5 C 0,7 C 79 % 1000,3 hPa 0,2 l/m 0 min 2 min 0,0 UV-I 0 W/m 10,3 km/h (2 Bft)
17.03.2013 04:38 3,4 C 0,7 C 80 % 1000,3 hPa 0,0 l/m 0 min 2 min 0,0 UV-I 0 W/m 20,6 km/h (4 Bft)
17.03.2013 04:40 3,4 C 0,7 C 80 % 1000,3 hPa 0,0 l/m 0 min 2 min 0,0 UV-I 0 W/m 12,9 km/h (3 Bft)
17.03.2013 04:42 3,3 C 0,7 C 81 % 1000,3 hPa 0,0 l/m 0 min 2 min 0,0 UV-I 0 W/m 12,9 km/h (3 Bft)
17.03.2013 04:44 3,3 C 0,7 C 82 % 1000,2 hPa 0,0 l/m 0 min 2 min 0,0 UV-I 0 W/m 12,9 km/h (3 Bft)
17.03.2013 04:46 3,3 C 0,7 C 82 % 1000,2 hPa 0,0 l/m 0 min 2 min 0,0 UV-I 0 W/m 18,0 km/h (3 Bft)
17.03.2013 04:48 3,2 C 0,7 C 83 % 1000,2 hPa 0,0 l/m 0 min 2 min 0,0 UV-I 0 W/m 12,9 km/h (3 Bft)
17.03.2013 04:50 3,2 C 0,7 C 84 % 1000,2 hPa 0,2 l/m 0 min 2 min 0,0 UV-I 0 W/m 5,1 km/h (1 Bft)
17.03.2013 04:52 3,2 C 0,7 C 84 % 1000,2 hPa 0,0 l/m 0 min 2 min 0,0 UV-I 0 W/m 7,7 km/h (2 Bft)
17.03.2013 04:54 3,2 C 0,7 C 85 % 1000,2 hPa 0,0 l/m 0 min 2 min 0,0 UV-I 0 W/m 12,9 km/h (3 Bft)
17.03.2013 04:56 3,1 C 0,7 C 85 % 1000,2 hPa 0,0 l/m 0 min 2 min 0,0 UV-I 0 W/m 12,9 km/h (3 Bft)
17.03.2013 04:58 3,1 C 0,7 C 86 % 1000,1 hPa 0,0 l/m 0 min 2 min 0,0 UV-I 0 W/m 7,7 km/h (2 Bft)
17.03.2013 05:00 3,1 C 0,7 C 86 % 1000,1 hPa 0,0 l/m 0 min 2 min 0,0 UV-I 0 W/m 7,7 km/h (2 Bft)
17.03.2013 05:02 3,1 C 0,7 C 87 % 1000,1 hPa 0,2 l/m 0 min 2 min 0,0 UV-I 0 W/m 15,4 km/h (3 Bft)
17.03.2013 05:04 3,1 C 1,2 C 87 % 1000,2 hPa 0,0 l/m 0 min 2 min 0,0 UV-I 0 W/m 18,0 km/h (3 Bft)
17.03.2013 05:06 3,1 C 1,2 C 88 % 1000,1 hPa 0,0 l/m 0 min 2 min 0,0 UV-I 0 W/m 20,6 km/h (4 Bft)
17.03.2013 05:08 3,1 C 1,2 C 88 % 1000,1 hPa 0,0 l/m 0 min 2 min 0,0 UV-I 0 W/m 18,0 km/h (3 Bft)
17.03.2013 05:10 3,1 C 1,2 C 89 % 1000,1 hPa 0,2 l/m 0 min 2 min 0,0 UV-I 0 W/m 20,6 km/h (4 Bft)
17.03.2013 05:12 3,1 C 1,2 C 90 % 1000,1 hPa 0,0 l/m 0 min 2 min 0,0 UV-I 0 W/m 25,7 km/h (4 Bft)
17.03.2013 05:14 3,1 C 1,2 C 90 % 1000,0 hPa 0,0 l/m 0 min 2 min 0,0 UV-I 0 W/m 15,4 km/h (3 Bft)
17.03.2013 05:16 3,1 C 1,2 C 90 % 1000,0 hPa 0,0 l/m 0 min 2 min 0,0 UV-I 0 W/m 15,4 km/h (3 Bft)
17.03.2013 05:18 3,1 C 1,2 C 90 % 1000,0 hPa 0,0 l/m 0 min 2 min 0,0 UV-I 0 W/m 15,4 km/h (3 Bft)
17.03.2013 05:20 3,1 C 1,2 C 91 % 1000,0 hPa 0,0 l/m 0 min 2 min 0,0 UV-I 0 W/m 15,4 km/h (3 Bft)
17.03.2013 05:22 3,1 C 1,2 C 91 % 1000,0 hPa 0,2 l/m 0 min 2 min 0,0 UV-I 0 W/m 12,9 km/h (3 Bft)
17.03.2013 05:24 3,1 C 1,2 C 91 % 1000,0 hPa 0,0 l/m 0 min 2 min 0,0 UV-I 0 W/m 18,0 km/h (3 Bft)
17.03.2013 05:26 3,1 C 1,2 C 91 % 1000,0 hPa 0,0 l/m 0 min 2 min 0,0 UV-I 0 W/m 12,9 km/h (3 Bft)
17.03.2013 05:28 3,1 C 1,2 C 91 % 1000,0 hPa 0,0 l/m 0 min 2 min 0,0 UV-I 0 W/m 0,0 km/h (0 Bft)
17.03.2013 05:30 3,1 C 1,2 C 92 % 1000,0 hPa 0,0 l/m 0 min 2 min 0,0 UV-I 0 W/m 10,3 km/h (2 Bft)
17.03.2013 05:32 3,1 C 1,2 C 92 % 1000,0 hPa 0,2 l/m 0 min 2 min 0,0 UV-I 0 W/m 20,6 km/h (4 Bft)
17.03.2013 05:34 3,1 C 1,2 C 92 % 1000,0 hPa 0,0 l/m 0 min 2 min 0,0 UV-I 0 W/m 23,2 km/h (4 Bft)
17.03.2013 05:36 3,1 C 1,2 C 92 % 1000,1 hPa 0,0 l/m 0 min 2 min 0,0 UV-I 0 W/m 28,3 km/h (4 Bft)
17.03.2013 05:38 3,1 C 1,2 C 92 % 1000,0 hPa 0,2 l/m 0 min 2 min 0,0 UV-I 0 W/m 30,9 km/h (5 Bft)
17.03.2013 05:40 3,0 C 1,2 C 92 % 1000,1 hPa 0,0 l/m 0 min 2 min 0,0 UV-I 0 W/m 36,0 km/h (5 Bft)
17.03.2013 05:42 2,9 C 1,2 C 92 % 1000,0 hPa 0,2 l/m 0 min 2 min 0,0 UV-I 0 W/m 33,5 km/h (5 Bft)
17.03.2013 05:44 2,9 C 0,7 C 92 % 1000,1 hPa 0,2 l/m 0 min 2 min 0,0 UV-I 0 W/m 23,2 km/h (4 Bft)
17.03.2013 05:46 2,8 C 0,7 C 92 % 1000,0 hPa 0,0 l/m 0 min 2 min 0,0 UV-I 0 W/m 28,3 km/h (4 Bft)
17.03.2013 05:48 2,8 C 0,7 C 93 % 1000,0 hPa 0,2 l/m 0 min 2 min 0,0 UV-I 0 W/m 25,7 km/h (4 Bft)
17.03.2013 05:50 2,7 C 0,7 C 93 % 1000,0 hPa 0,2 l/m 0 min 2 min 0,0 UV-I 0 W/m 28,3 km/h (4 Bft)
17.03.2013 05:52 2,7 C 0,7 C 93 % 1000,1 hPa 0,0 l/m 0 min 2 min 0,0 UV-I 0 W/m 20,6 km/h (4 Bft)
17.03.2013 05:54 2,7 C 0,7 C 93 % 1000,1 hPa 0,2 l/m 0 min 2 min 0,0 UV-I 0 W/m 23,2 km/h (4 Bft)
17.03.2013 05:56 2,6 C 0,7 C 93 % 1000,0 hPa 0,0 l/m 0 min 2 min 0,0 UV-I 0 W/m 30,9 km/h (5 Bft)
17.03.2013 05:58 2,6 C 0,7 C 93 % 1000,0 hPa 0,2 l/m 0 min 2 min 0,0 UV-I 0 W/m 23,2 km/h (4 Bft)
17.03.2013 06:00 2,6 C 0,7 C 94 % 999,9 hPa 0,0 l/m 0 min 2 min 0,0 UV-I 0 W/m 10,3 km/h (2 Bft)
17.03.2013 06:02 2,6 C 0,7 C 94 % 999,9 hPa 0,0 l/m 0 min 2 min 0,0 UV-I 0 W/m 12,9 km/h (3 Bft)
17.03.2013 06:04 2,6 C 0,7 C 94 % 999,9 hPa 0,2 l/m 0 min 2 min 0,0 UV-I 0 W/m 33,5 km/h (5 Bft)
17.03.2013 06:06 2,6 C 0,7 C 94 % 999,9 hPa 0,0 l/m 0 min 2 min 0,0 UV-I 0 W/m 30,9 km/h (5 Bft)
17.03.2013 06:08 2,5 C 0,7 C 94 % 999,9 hPa 0,0 l/m 0 min 2 min 0,0 UV-I 0 W/m 23,2 km/h (4 Bft)
17.03.2013 06:10 2,5 C 0,7 C 94 % 999,9 hPa 0,2 l/m 0 min 2 min 0,0 UV-I 0 W/m 36,0 km/h (5 Bft)
17.03.2013 06:12 2,4 C 0,7 C 94 % 999,9 hPa 0,0 l/m 0 min 2 min 0,0 UV-I 0 W/m 30,9 km/h (5 Bft)
17.03.2013 06:14 2,4 C 0,7 C 94 % 999,9 hPa 0,0 l/m 0 min 2 min 0,0 UV-I 0 W/m 20,6 km/h (4 Bft)
17.03.2013 06:16 2,4 C 0,7 C 95 % 999,9 hPa 0,0 l/m 0 min 2 min 0,0 UV-I 0 W/m 20,6 km/h (4 Bft)
17.03.2013 06:18 2,4 C 0,7 C 95 % 999,9 hPa 0,2 l/m 0 min 2 min 0,0 UV-I 0 W/m 23,2 km/h (4 Bft)
17.03.2013 06:20 2,4 C 0,7 C 95 % 999,9 hPa 0,0 l/m 0 min 2 min 0,0 UV-I 0 W/m 20,6 km/h (4 Bft)
17.03.2013 06:22 2,4 C 0,7 C 95 % 999,8 hPa 0,0 l/m 0 min 2 min 0,0 UV-I 0 W/m 20,6 km/h (4 Bft)
17.03.2013 06:24 2,4 C 0,7 C 95 % 999,9 hPa 0,0 l/m 0 min 2 min 0,0 UV-I 0 W/m 23,2 km/h (4 Bft)
17.03.2013 06:26 2,3 C 0,7 C 95 % 999,9 hPa 0,0 l/m 0 min 2 min 0,0 UV-I 0 W/m 12,9 km/h (3 Bft)
17.03.2013 06:28 2,3 C 0,7 C 95 % 1000,0 hPa 0,0 l/m 0 min 2 min 0,0 UV-I 0 W/m 18,0 km/h (3 Bft)
17.03.2013 06:30 2,3 C 0,7 C 95 % 1000,0 hPa 0,0 l/m 0 min 2 min 0,0 UV-I 0 W/m 23,2 km/h (4 Bft)
17.03.2013 06:32 2,3 C 0,7 C 95 % 999,9 hPa 0,2 l/m 0 min 2 min 0,0 UV-I 0 W/m 23,2 km/h (4 Bft)
17.03.2013 06:34 2,3 C 0,7 C 95 % 999,9 hPa 0,0 l/m 0 min 2 min 0,0 UV-I 0 W/m 18,0 km/h (3 Bft)
17.03.2013 06:36 2,3 C 0,7 C 95 % 999,9 hPa 0,0 l/m 0 min 2 min 0,0 UV-I 0 W/m 18,0 km/h (3 Bft)
17.03.2013 06:38 2,3 C 0,7 C 96 % 1000,0 hPa 0,0 l/m 0 min 2 min 0,0 UV-I 0 W/m 18,0 km/h (3 Bft)
17.03.2013 06:40 2,3 C 0,7 C 95 % 999,9 hPa 0,0 l/m 0 min 2 min 0,0 UV-I 0 W/m 15,4 km/h (3 Bft)
17.03.2013 06:42 2,3 C 1,2 C 95 % 1000,0 hPa 0,0 l/m 0 min 2 min 0,0 UV-I 0 W/m 36,0 km/h (5 Bft)
17.03.2013 06:44 2,3 C 0,7 C 96 % 999,9 hPa 0,0 l/m 0 min 2 min 0,0 UV-I 0 W/m 23,2 km/h (4 Bft)
17.03.2013 06:46 2,3 C 0,7 C 96 % 999,9 hPa 0,0 l/m 0 min 2 min 0,0 UV-I 0 W/m 15,4 km/h (3 Bft)
17.03.2013 06:48 2,3 C 0,7 C 96 % 999,9 hPa 0,0 l/m 0 min 2 min 0,0 UV-I 0 W/m 15,4 km/h (3 Bft)
17.03.2013 06:50 2,3 C 0,7 C 96 % 999,9 hPa 0,2 l/m 0 min 2 min 0,0 UV-I 0 W/m 20,6 km/h (4 Bft)
17.03.2013 06:52 2,3 C 1,2 C 96 % 999,9 hPa 0,0 l/m 0 min 2 min 0,0 UV-I 0 W/m 23,2 km/h (4 Bft)
17.03.2013 06:54 2,2 C 1,2 C 96 % 999,9 hPa 0,0 l/m 0 min 2 min 0,0 UV-I 0 W/m 18,0 km/h (3 Bft)
17.03.2013 06:56 2,2 C 1,2 C 96 % 999,9 hPa 0,0 l/m 0 min 2 min 0,0 UV-I 0 W/m 20,6 km/h (4 Bft)
17.03.2013 06:58 2,2 C 1,2 C 96 % 999,8 hPa 0,0 l/m 0 min 2 min 0,0 UV-I 0 W/m 18,0 km/h (3 Bft)
17.03.2013 07:00 2,2 C 1,2 C 96 % 999,8 hPa 0,0 l/m 0 min 2 min 0,0 UV-I 0 W/m 18,0 km/h (3 Bft)
17.03.2013 07:02 2,2 C 1,2 C 96 % 999,8 hPa 0,0 l/m 0 min 2 min 0,0 UV-I 0 W/m 18,0 km/h (3 Bft)
17.03.2013 07:04 2,2 C 1,2 C 96 % 999,8 hPa 0,0 l/m 0 min 2 min 0,0 UV-I 0 W/m 30,9 km/h (5 Bft)
17.03.2013 07:06 2,2 C 1,2 C 96 % 999,8 hPa 0,0 l/m 0 min 2 min 0,0 UV-I 0 W/m 25,7 km/h (4 Bft)
17.03.2013 07:08 2,2 C 1,2 C 96 % 999,8 hPa 0,0 l/m 0 min 0 min 0,0 UV-I 0 W/m 18,0 km/h (3 Bft)
17.03.2013 07:10 2,2 C 1,2 C 96 % 999,9 hPa 0,0 l/m 0 min 0 min 0,0 UV-I 0 W/m 20,6 km/h (4 Bft)
17.03.2013 07:12 2,2 C 1,2 C 96 % 999,8 hPa 0,0 l/m 0 min 0 min 0,0 UV-I 0 W/m 15,4 km/h (3 Bft)
17.03.2013 07:14 2,3 C 1,2 C 96 % 999,8 hPa 0,0 l/m 0 min 0 min 0,0 UV-I 0 W/m 25,7 km/h (4 Bft)
17.03.2013 07:16 2,3 C 1,2 C 97 % 999,8 hPa 0,0 l/m 0 min 0 min 0,0 UV-I 0 W/m 23,2 km/h (4 Bft)
17.03.2013 07:18 2,3 C 1,2 C 97 % 999,8 hPa 0,0 l/m 0 min 0 min 0,0 UV-I 0 W/m 18,0 km/h (3 Bft)
17.03.2013 07:20 2,3 C 1,2 C 97 % 999,8 hPa 0,0 l/m 0 min 0 min 0,0 UV-I 0 W/m 18,0 km/h (3 Bft)
17.03.2013 07:22 2,3 C 1,2 C 97 % 999,8 hPa 0,0 l/m 0 min 0 min 0,0 UV-I 5 W/m 20,6 km/h (4 Bft)
17.03.2013 07:24 2,3 C 1,2 C 97 % 999,8 hPa 0,0 l/m 0 min 0 min 0,0 UV-I 5 W/m 20,6 km/h (4 Bft)
17.03.2013 07:26 2,3 C 1,2 C 97 % 999,8 hPa 0,0 l/m 0 min 0 min 0,0 UV-I 5 W/m 25,7 km/h (4 Bft)
17.03.2013 07:28 2,3 C 1,2 C 97 % 999,8 hPa 0,0 l/m 0 min 0 min 0,0 UV-I 5 W/m 15,4 km/h (3 Bft)
17.03.2013 07:30 2,3 C 1,2 C 97 % 999,8 hPa 0,0 l/m 0 min 0 min 0,0 UV-I 5 W/m 20,6 km/h (4 Bft)
17.03.2013 07:32 2,3 C 1,2 C 97 % 999,8 hPa 0,0 l/m 0 min 0 min 0,0 UV-I 5 W/m 10,3 km/h (2 Bft)
17.03.2013 07:34 2,3 C 1,2 C 97 % 999,8 hPa 0,0 l/m 0 min 0 min 0,0 UV-I 7 W/m 15,4 km/h (3 Bft)
17.03.2013 07:36 2,3 C 1,2 C 97 % 999,9 hPa 0,0 l/m 0 min 2 min 0,0 UV-I 9 W/m 25,7 km/h (4 Bft)
17.03.2013 07:38 2,3 C 1,2 C 97 % 999,8 hPa 0,0 l/m 0 min 2 min 0,0 UV-I 11 W/m 23,2 km/h (4 Bft)
17.03.2013 07:40 2,3 C 1,2 C 97 % 999,8 hPa 0,0 l/m 0 min 2 min 0,0 UV-I 14 W/m 25,7 km/h (4 Bft)
17.03.2013 07:42 2,3 C 1,2 C 97 % 999,8 hPa 0,0 l/m 0 min 2 min 0,0 UV-I 16 W/m 23,2 km/h (4 Bft)
17.03.2013 07:44 2,3 C 1,2 C 97 % 999,8 hPa 0,0 l/m 0 min 0 min 0,0 UV-I 16 W/m 20,6 km/h (4 Bft)
17.03.2013 07:46 2,3 C 1,2 C 97 % 999,8 hPa 0,0 l/m 0 min 0 min 0,0 UV-I 14 W/m 18,0 km/h (3 Bft)
17.03.2013 07:48 2,3 C 1,2 C 97 % 999,7 hPa 0,0 l/m 0 min 0 min 0,0 UV-I 16 W/m 15,4 km/h (3 Bft)
17.03.2013 07:50 2,3 C 1,2 C 97 % 999,7 hPa 0,0 l/m 0 min 0 min 0,0 UV-I 18 W/m 23,2 km/h (4 Bft)
17.03.2013 07:52 2,3 C 1,2 C 97 % 999,8 hPa 0,0 l/m 0 min 0 min 0,0 UV-I 21 W/m 25,7 km/h (4 Bft)
17.03.2013 07:54 2,3 C 1,2 C 97 % 999,7 hPa 0,0 l/m 0 min 2 min 0,0 UV-I 21 W/m 28,3 km/h (4 Bft)
17.03.2013 07:56 2,3 C 1,2 C 97 % 999,7 hPa 0,0 l/m 0 min 0 min 0,0 UV-I 21 W/m 20,6 km/h (4 Bft)
17.03.2013 07:58 2,3 C 1,2 C 97 % 999,8 hPa 0,0 l/m 0 min 2 min 0,0 UV-I 23 W/m 30,9 km/h (5 Bft)
17.03.2013 08:00 2,3 C 1,2 C 97 % 999,7 hPa 0,0 l/m 0 min 2 min 0,0 UV-I 23 W/m 30,9 km/h (5 Bft)
17.03.2013 08:02 2,3 C 1,2 C 97 % 999,6 hPa 0,0 l/m 0 min 0 min 0,0 UV-I 26 W/m 20,6 km/h (4 Bft)
17.03.2013 08:04 2,3 C 1,2 C 97 % 999,7 hPa 0,0 l/m 0 min 0 min 0,0 UV-I 30 W/m 23,2 km/h (4 Bft)
17.03.2013 08:06 2,4 C 1,2 C 97 % 999,6 hPa 0,0 l/m 0 min 0 min 0,0 UV-I 30 W/m 18,0 km/h (3 Bft)
17.03.2013 08:08 2,4 C 1,2 C 97 % 999,7 hPa 0,0 l/m 0 min 0 min 0,0 UV-I 30 W/m 25,7 km/h (4 Bft)
17.03.2013 08:10 2,4 C 1,2 C 97 % 999,6 hPa 0,0 l/m 0 min 2 min 0,0 UV-I 33 W/m 30,9 km/h (5 Bft)
17.03.2013 08:12 2,4 C 1,2 C 97 % 999,6 hPa 0,0 l/m 0 min 0 min 0,0 UV-I 32 W/m 28,3 km/h (4 Bft)
17.03.2013 08:14 2,4 C 1,2 C 97 % 999,6 hPa 0,0 l/m 0 min 0 min 0,0 UV-I 32 W/m 25,7 km/h (4 Bft)
17.03.2013 08:16 2,4 C 1,2 C 97 % 999,6 hPa 0,0 l/m 0 min 2 min 0,0 UV-I 33 W/m 33,5 km/h (5 Bft)
17.03.2013 08:18 2,4 C 1,2 C 97 % 999,6 hPa 0,0 l/m 0 min 0 min 0,0 UV-I 37 W/m 25,7 km/h (4 Bft)
17.03.2013 08:20 2,4 C 1,2 C 97 % 999,6 hPa 0,0 l/m 0 min 0 min 0,0 UV-I 39 W/m 28,3 km/h (4 Bft)
17.03.2013 08:22 2,4 C 1,2 C 97 % 999,6 hPa 0,0 l/m 0 min 2 min 0,0 UV-I 42 W/m 25,7 km/h (4 Bft)
17.03.2013 08:24 2,5 C 1,2 C 97 % 999,6 hPa 0,0 l/m 0 min 0 min 0,0 UV-I 40 W/m 20,6 km/h (4 Bft)
17.03.2013 08:26 2,5 C 1,8 C 97 % 999,6 hPa 0,0 l/m 0 min 0 min 0,0 UV-I 40 W/m 25,7 km/h (4 Bft)
17.03.2013 08:28 2,5 C 1,8 C 97 % 999,7 hPa 0,0 l/m 0 min 0 min 0,0 UV-I 40 W/m 23,2 km/h (4 Bft)
17.03.2013 08:30 2,5 C 1,8 C 97 % 999,6 hPa 0,0 l/m 0 min 0 min 0,0 UV-I 44 W/m 25,7 km/h (4 Bft)
17.03.2013 08:32 2,6 C 1,8 C 97 % 999,7 hPa 0,0 l/m 0 min 0 min 0,0 UV-I 51 W/m 18,0 km/h (3 Bft)
17.03.2013 08:34 2,6 C 1,8 C 97 % 999,6 hPa 0,0 l/m 0 min 0 min 0,0 UV-I 46 W/m 30,9 km/h (5 Bft)
17.03.2013 08:36 2,6 C 1,8 C 97 % 999,6 hPa 0,0 l/m 0 min 0 min 0,0 UV-I 51 W/m 25,7 km/h (4 Bft)
17.03.2013 08:38 2,6 C 1,8 C 97 % 999,6 hPa 0,0 l/m 0 min 0 min 0,0 UV-I 53 W/m 23,2 km/h (4 Bft)
17.03.2013 08:40 2,6 C 1,8 C 97 % 999,6 hPa 0,0 l/m 0 min 0 min 0,0 UV-I 53 W/m 20,6 km/h (4 Bft)
17.03.2013 08:42 2,7 C 1,8 C 97 % 999,6 hPa 0,0 l/m 0 min 0 min 0,0 UV-I 47 W/m 20,6 km/h (4 Bft)
17.03.2013 08:44 2,7 C 1,8 C 97 % 999,6 hPa 0,0 l/m 0 min 0 min 0,0 UV-I 44 W/m 30,9 km/h (5 Bft)
17.03.2013 08:46 2,7 C 1,8 C 97 % 999,6 hPa 0,0 l/m 0 min 0 min 0,0 UV-I 44 W/m 23,2 km/h (4 Bft)
17.03.2013 08:48 2,7 C 1,8 C 97 % 999,6 hPa 0,0 l/m 0 min 0 min 0,0 UV-I 44 W/m 33,5 km/h (5 Bft)
17.03.2013 08:50 2,7 C 1,8 C 97 % 999,6 hPa 0,0 l/m 0 min 2 min 0,0 UV-I 56 W/m 20,6 km/h (4 Bft)
17.03.2013 08:52 2,7 C 1,8 C 97 % 999,6 hPa 0,0 l/m 0 min 0 min 0,0 UV-I 60 W/m 20,6 km/h (4 Bft)
17.03.2013 08:54 2,8 C 1,8 C 97 % 999,5 hPa 0,0 l/m 0 min 0 min 0,0 UV-I 60 W/m 18,0 km/h (3 Bft)
17.03.2013 08:56 2,8 C 1,8 C 97 % 999,5 hPa 0,0 l/m 0 min 0 min 0,0 UV-I 65 W/m 28,3 km/h (4 Bft)
17.03.2013 08:58 2,8 C 1,8 C 97 % 999,6 hPa 0,0 l/m 0 min 0 min 0,0 UV-I 63 W/m 12,9 km/h (3 Bft)
17.03.2013 09:00 2,8 C 2,3 C 97 % 999,6 hPa 0,0 l/m 0 min 0 min 0,0 UV-I 70 W/m 12,9 km/h (3 Bft)
17.03.2013 09:02 2,9 C 2,3 C 97 % 999,6 hPa 0,0 l/m 0 min 0 min 0,0 UV-I 76 W/m 18,0 km/h (3 Bft)
17.03.2013 09:04 2,9 C 2,3 C 97 % 999,6 hPa 0,0 l/m 0 min 0 min 0,0 UV-I 81 W/m 15,4 km/h (3 Bft)
17.03.2013 09:06 2,9 C 2,3 C 97 % 999,5 hPa 0,0 l/m 0 min 0 min 0,0 UV-I 81 W/m 23,2 km/h (4 Bft)
17.03.2013 09:08 3,0 C 2,3 C 97 % 999,6 hPa 0,0 l/m 0 min 0 min 0,0 UV-I 83 W/m 12,9 km/h (3 Bft)
17.03.2013 09:10 3,0 C 2,3 C 97 % 999,5 hPa 0,0 l/m 0 min 0 min 0,0 UV-I 83 W/m 18,0 km/h (3 Bft)
17.03.2013 09:12 3,1 C 2,3 C 97 % 999,5 hPa 0,0 l/m 0 min 0 min 0,0 UV-I 81 W/m 20,6 km/h (4 Bft)
17.03.2013 09:14 3,1 C 2,3 C 97 % 999,5 hPa 0,0 l/m 0 min 0 min 0,0 UV-I 86 W/m 15,4 km/h (3 Bft)
17.03.2013 09:16 3,1 C 2,3 C 97 % 999,5 hPa 0,0 l/m 0 min 0 min 0,0 UV-I 91 W/m 20,6 km/h (4 Bft)
17.03.2013 09:18 3,2 C 2,3 C 96 % 999,5 hPa 0,0 l/m 0 min 0 min 0,0 UV-I 98 W/m 33,5 km/h (5 Bft)
17.03.2013 09:20 3,2 C 2,3 C 96 % 999,5 hPa 0,0 l/m 0 min 0 min 0,0 UV-I 98 W/m 20,6 km/h (4 Bft)
17.03.2013 09:22 3,2 C 2,3 C 96 % 999,6 hPa 0,0 l/m 0 min 0 min 0,0 UV-I 98 W/m 23,2 km/h (4 Bft)
17.03.2013 09:24 3,2 C 2,3 C 96 % 999,6 hPa 0,0 l/m 0 min 0 min 0,0 UV-I 102 W/m 23,2 km/h (4 Bft)
17.03.2013 09:26 3,2 C 2,3 C 96 % 999,6 hPa 0,0 l/m 0 min 0 min 0,0 UV-I 107 W/m 28,3 km/h (4 Bft)
17.03.2013 09:28 3,3 C 2,3 C 96 % 999,5 hPa 0,0 l/m 0 min 0 min 0,0 UV-I 107 W/m 23,2 km/h (4 Bft)
17.03.2013 09:30 3,3 C 2,9 C 96 % 999,5 hPa 0,0 l/m 0 min 0 min 0,0 UV-I 105 W/m 20,6 km/h (4 Bft)
17.03.2013 09:32 3,3 C 2,3 C 96 % 999,6 hPa 0,0 l/m 0 min 0 min 0,0 UV-I 114 W/m 18,0 km/h (3 Bft)
17.03.2013 09:34 3,4 C 2,3 C 96 % 999,4 hPa 0,0 l/m 0 min 0 min 0,0 UV-I 123 W/m 30,9 km/h (5 Bft)
17.03.2013 09:36 3,4 C 2,9 C 96 % 999,4 hPa 0,0 l/m 0 min 0 min 0,0 UV-I 128 W/m 28,3 km/h (4 Bft)
17.03.2013 09:38 3,4 C 2,9 C 96 % 999,4 hPa 0,0 l/m 0 min 0 min 0,0 UV-I 128 W/m 33,5 km/h (5 Bft)
17.03.2013 09:40 3,5 C 2,9 C 96 % 999,4 hPa 0,0 l/m 0 min 0 min 0,0 UV-I 128 W/m 28,3 km/h (4 Bft)
17.03.2013 09:42 3,5 C 2,9 C 96 % 999,4 hPa 0,0 l/m 0 min 0 min 0,0 UV-I 130 W/m 33,5 km/h (5 Bft)
17.03.2013 09:44 3,6 C 2,9 C 95 % 999,4 hPa 0,0 l/m 0 min 0 min 0,0 UV-I 134 W/m 23,2 km/h (4 Bft)
17.03.2013 09:46 3,6 C 2,9 C 95 % 999,5 hPa 0,0 l/m 0 min 0 min 0,0 UV-I 139 W/m 28,3 km/h (4 Bft)
17.03.2013 09:48 3,6 C 2,9 C 95 % 999,5 hPa 0,0 l/m 0 min 0 min 0,0 UV-I 142 W/m 30,9 km/h (5 Bft)
17.03.2013 09:50 3,6 C 2,9 C 95 % 999,3 hPa 0,0 l/m 0 min 0 min 0,0 UV-I 125 W/m 25,7 km/h (4 Bft)
17.03.2013 09:52 3,7 C 2,9 C 95 % 999,3 hPa 0,0 l/m 0 min 0 min 0,0 UV-I 144 W/m 20,6 km/h (4 Bft)
17.03.2013 09:54 3,7 C 3,4 C 95 % 999,3 hPa 0,0 l/m 0 min 0 min 0,0 UV-I 146 W/m 20,6 km/h (4 Bft)
17.03.2013 09:56 3,8 C 3,4 C 95 % 999,3 hPa 0,0 l/m 0 min 0 min 0,0 UV-I 146 W/m 20,6 km/h (4 Bft)
17.03.2013 09:58 3,8 C 3,4 C 95 % 999,3 hPa 0,0 l/m 0 min 0 min 0,0 UV-I 151 W/m 28,3 km/h (4 Bft)
17.03.2013 10:00 3,8 C 3,4 C 95 % 999,3 hPa 0,0 l/m 0 min 0 min 0,0 UV-I 155 W/m 20,6 km/h (4 Bft)
17.03.2013 10:02 3,9 C 3,4 C 95 % 999,2 hPa 0,0 l/m 0 min 0 min 0,0 UV-I 160 W/m 23,2 km/h (4 Bft)
17.03.2013 10:04 3,9 C 3,4 C 95 % 999,3 hPa 0,0 l/m 0 min 0 min 0,0 UV-I 156 W/m 33,5 km/h (5 Bft)
17.03.2013 10:06 4,0 C 3,4 C 94 % 999,2 hPa 0,0 l/m 0 min 0 min 0,0 UV-I 148 W/m 30,9 km/h (5 Bft)
17.03.2013 10:08 4,1 C 3,4 C 94 % 999,2 hPa 0,0 l/m 0 min 0 min 0,0 UV-I 146 W/m 30,9 km/h (5 Bft)
17.03.2013 10:10 4,1 C 3,4 C 94 % 999,2 hPa 0,0 l/m 0 min 0 min 0,0 UV-I 155 W/m 25,7 km/h (4 Bft)
17.03.2013 10:12 4,1 C 3,4 C 94 % 999,2 hPa 0,0 l/m 0 min 0 min 0,0 UV-I 160 W/m 25,7 km/h (4 Bft)
17.03.2013 10:14 4,2 C 3,4 C 94 % 999,2 hPa 0,0 l/m 0 min 0 min 0,0 UV-I 160 W/m 30,9 km/h (5 Bft)
17.03.2013 10:16 4,2 C 3,4 C 94 % 999,1 hPa 0,0 l/m 0 min 0 min 0,0 UV-I 162 W/m 33,5 km/h (5 Bft)
17.03.2013 10:18 4,2 C 3,4 C 93 % 999,2 hPa 0,0 l/m 0 min 0 min 0,0 UV-I 167 W/m 36,0 km/h (5 Bft)
17.03.2013 10:20 4,2 C 4,0 C 93 % 999,1 hPa 0,0 l/m 0 min 0 min 0,0 UV-I 169 W/m 25,7 km/h (4 Bft)
17.03.2013 10:22 4,3 C 4,0 C 93 % 999,1 hPa 0,0 l/m 0 min 0 min 0,0 UV-I 169 W/m 23,2 km/h (4 Bft)
17.03.2013 10:24 4,3 C 4,0 C 93 % 999,1 hPa 0,0 l/m 0 min 0 min 0,0 UV-I 163 W/m 28,3 km/h (4 Bft)
17.03.2013 10:26 4,3 C 4,0 C 93 % 999,0 hPa 0,0 l/m 0 min 0 min 0,0 UV-I 165 W/m 20,6 km/h (4 Bft)
17.03.2013 10:28 4,4 C 4,0 C 93 % 999,0 hPa 0,0 l/m 0 min 0 min 0,0 UV-I 171 W/m 30,9 km/h (5 Bft)
17.03.2013 10:30 4,4 C 4,0 C 92 % 999,0 hPa 0,0 l/m 0 min 0 min 0,0 UV-I 178 W/m 33,5 km/h (5 Bft)
17.03.2013 10:32 4,4 C 4,0 C 92 % 998,9 hPa 0,0 l/m 0 min 0 min 0,0 UV-I 176 W/m 33,5 km/h (5 Bft)
17.03.2013 10:34 4,4 C 4,0 C 92 % 998,9 hPa 0,0 l/m 0 min 0 min 0,0 UV-I 174 W/m 20,6 km/h (4 Bft)
17.03.2013 10:36 4,5 C 4,0 C 92 % 998,8 hPa 0,0 l/m 0 min 0 min 0,0 UV-I 171 W/m 23,2 km/h (4 Bft)
17.03.2013 10:38 4,6 C 4,0 C 92 % 998,8 hPa 0,0 l/m 0 min 0 min 0,0 UV-I 167 W/m 25,7 km/h (4 Bft)
17.03.2013 10:40 4,6 C 4,0 C 92 % 998,9 hPa 0,0 l/m 0 min 0 min 0,0 UV-I 167 W/m 33,5 km/h (5 Bft)
17.03.2013 10:42 4,6 C 4,0 C 92 % 998,9 hPa 0,0 l/m 0 min 0 min 0,0 UV-I 165 W/m 28,3 km/h (4 Bft)
17.03.2013 10:44 4,6 C 4,0 C 92 % 998,9 hPa 0,0 l/m 0 min 0 min 0,0 UV-I 171 W/m 30,9 km/h (5 Bft)
17.03.2013 10:46 4,6 C 4,0 C 91 % 998,8 hPa 0,0 l/m 0 min 0 min 0,0 UV-I 183 W/m 28,3 km/h (4 Bft)
17.03.2013 10:48 4,6 C 4,0 C 91 % 998,8 hPa 0,0 l/m 0 min 0 min 0,0 UV-I 209 W/m 28,3 km/h (4 Bft)
17.03.2013 10:50 4,6 C 4,6 C 96 % 998,8 hPa 0,0 l/m 0 min 0 min 0,0 UV-I 239 W/m 30,9 km/h (5 Bft)
17.03.2013 10:52 4,7 C 4,6 C 91 % 998,7 hPa 0,0 l/m 0 min 0 min 0,0 UV-I 287 W/m 28,3 km/h (4 Bft)
17.03.2013 10:54 4,7 C 5,1 C 91 % 998,7 hPa 0,0 l/m 0 min 0 min 0,0 UV-I 288 W/m 20,6 km/h (4 Bft)
17.03.2013 10:56 4,8 C 5,1 C 92 % 998,7 hPa 0,0 l/m 0 min 0 min 0,0 UV-I 243 W/m 20,6 km/h (4 Bft)
17.03.2013 10:58 4,9 C 5,1 C 91 % 998,6 hPa 0,0 l/m 0 min 0 min 0,0 UV-I 216 W/m 28,3 km/h (4 Bft)
17.03.2013 11:00 5,0 C 5,1 C 91 % 998,6 hPa 0,0 l/m 0 min 0 min 0,0 UV-I 214 W/m 25,7 km/h (4 Bft)
17.03.2013 11:02 5,1 C 5,1 C 96 % 998,6 hPa 0,0 l/m 0 min 0 min 0,0 UV-I 230 W/m 30,9 km/h (5 Bft)
17.03.2013 11:04 5,1 C 5,1 C 91 % 998,6 hPa 0,0 l/m 0 min 0 min 0,0 UV-I 214 W/m 20,6 km/h (4 Bft)
17.03.2013 11:06 5,2 C 5,1 C 91 % 998,5 hPa 0,0 l/m 0 min 0 min 0,0 UV-I 216 W/m 33,5 km/h (5 Bft)
17.03.2013 11:08 5,2 C 5,1 C 91 % 998,5 hPa 0,0 l/m 0 min 0 min 0,0 UV-I 214 W/m 20,6 km/h (4 Bft)
17.03.2013 11:10 5,3 C 5,1 C 90 % 998,5 hPa 0,0 l/m 0 min 0 min 0,0 UV-I 230 W/m 25,7 km/h (4 Bft)
17.03.2013 11:12 5,3 C 5,1 C 90 % 998,5 hPa 0,0 l/m 0 min 0 min 0,0 UV-I 241 W/m 25,7 km/h (4 Bft)
17.03.2013 11:14 5,3 C 5,7 C 90 % 998,5 hPa 0,0 l/m 0 min 0 min 0,0 UV-I 274 W/m 12,9 km/h (3 Bft)
17.03.2013 11:16 5,4 C 5,7 C 90 % 998,6 hPa 0,0 l/m 2 min 0 min 0,6 UV-I 330 W/m 23,2 km/h (4 Bft)
17.03.2013 11:18 5,6 C 6,2 C 90 % 998,5 hPa 0,0 l/m 2 min 0 min 0,9 UV-I 330 W/m 33,5 km/h (5 Bft)
17.03.2013 11:20 5,7 C 6,2 C 90 % 998,5 hPa 0,0 l/m 2 min 0 min 1,0 UV-I 466 W/m 33,5 km/h (5 Bft)
17.03.2013 11:22 5,8 C 6,2 C 90 % 998,5 hPa 0,0 l/m 2 min 0 min 1,0 UV-I 633 W/m 10,3 km/h (2 Bft)
17.03.2013 11:24 5,9 C 6,2 C 90 % 998,4 hPa 0,0 l/m 0 min 0 min 0,5 UV-I 227 W/m 12,9 km/h (3 Bft)
17.03.2013 11:26 6,1 C 6,2 C 89 % 998,5 hPa 0,0 l/m 2 min 0 min 1,0 UV-I 439 W/m 33,5 km/h (5 Bft)
17.03.2013 11:28 6,2 C 6,2 C 89 % 998,5 hPa 0,0 l/m 2 min 0 min 1,1 UV-I 596 W/m 30,9 km/h (5 Bft)
17.03.2013 11:30 6,3 C 6,2 C 88 % 998,5 hPa 0,0 l/m 2 min 0 min 0,8 UV-I 536 W/m 30,9 km/h (5 Bft)
17.03.2013 11:32 6,4 C 6,2 C 87 % 998,3 hPa 0,0 l/m 2 min 0 min 1,1 UV-I 601 W/m 25,7 km/h (4 Bft)
17.03.2013 11:34 6,6 C 6,8 C 87 % 998,4 hPa 0,0 l/m 2 min 0 min 1,1 UV-I 584 W/m 28,3 km/h (4 Bft)
17.03.2013 11:36 6,7 C 6,8 C 87 % 998,3 hPa 0,0 l/m 2 min 0 min 0,8 UV-I 520 W/m 36,0 km/h (5 Bft)
17.03.2013 11:38 6,8 C 6,8 C 87 % 998,4 hPa 0,0 l/m 0 min 0 min 0,7 UV-I 225 W/m 28,3 km/h (4 Bft)
17.03.2013 11:40 6,8 C 6,8 C 86 % 998,5 hPa 0,0 l/m 0 min 0 min 0,6 UV-I 225 W/m 33,5 km/h (5 Bft)
17.03.2013 11:42 6,9 C 6,8 C 85 % 998,5 hPa 0,0 l/m 2 min 0 min 1,1 UV-I 457 W/m 25,7 km/h (4 Bft)
17.03.2013 11:44 7,0 C 6,8 C 85 % 998,4 hPa 0,0 l/m 2 min 0 min 1,1 UV-I 580 W/m 28,3 km/h (4 Bft)
17.03.2013 11:46 7,1 C 6,8 C 85 % 998,5 hPa 0,0 l/m 2 min 0 min 1,1 UV-I 580 W/m 23,2 km/h (4 Bft)
17.03.2013 11:48 7,2 C 6,8 C 84 % 998,5 hPa 0,0 l/m 2 min 0 min 1,2 UV-I 580 W/m 36,0 km/h (5 Bft)
17.03.2013 11:50 7,3 C 6,8 C 85 % 998,3 hPa 0,0 l/m 2 min 0 min 1,1 UV-I 585 W/m 25,7 km/h (4 Bft)
17.03.2013 11:52 7,4 C 6,8 C 84 % 998,4 hPa 0,0 l/m 2 min 0 min 1,2 UV-I 603 W/m 30,9 km/h (5 Bft)
17.03.2013 11:54 7,5 C 6,8 C 83 % 998,4 hPa 0,0 l/m 2 min 0 min 1,3 UV-I 603 W/m 20,6 km/h (4 Bft)
17.03.2013 11:56 7,6 C 6,8 C 84 % 998,2 hPa 0,0 l/m 2 min 0 min 1,2 UV-I 603 W/m 30,9 km/h (5 Bft)
17.03.2013 11:58 7,7 C 7,3 C 83 % 998,2 hPa 0,0 l/m 2 min 0 min 1,2 UV-I 589 W/m 25,7 km/h (4 Bft)
17.03.2013 12:00 7,8 C 7,3 C 83 % 998,2 hPa 0,0 l/m 2 min 0 min 1,2 UV-I 599 W/m 28,3 km/h (4 Bft)
17.03.2013 12:02 7,8 C 7,3 C 82 % 998,2 hPa 0,0 l/m 2 min 0 min 1,3 UV-I 629 W/m 30,9 km/h (5 Bft)
17.03.2013 12:04 7,9 C 7,9 C 82 % 998,1 hPa 0,0 l/m 2 min 0 min 1,2 UV-I 619 W/m 23,2 km/h (4 Bft)
17.03.2013 12:06 8,1 C 7,9 C 82 % 997,9 hPa 0,0 l/m 2 min 0 min 1,3 UV-I 619 W/m 23,2 km/h (4 Bft)
17.03.2013 12:08 8,2 C 7,9 C 81 % 997,9 hPa 0,0 l/m 2 min 0 min 1,3 UV-I 619 W/m 23,2 km/h (4 Bft)
17.03.2013 12:10 8,2 C 7,9 C 81 % 997,9 hPa 0,0 l/m 2 min 0 min 0,9 UV-I 564 W/m 25,7 km/h (4 Bft)
17.03.2013 12:12 8,3 C 8,4 C 82 % 998,0 hPa 0,0 l/m 2 min 0 min 0,6 UV-I 728 W/m 20,6 km/h (4 Bft)
17.03.2013 12:14 8,4 C 7,9 C 81 % 998,0 hPa 0,0 l/m 2 min 0 min 0,9 UV-I 728 W/m 28,3 km/h (4 Bft)
17.03.2013 12:16 8,4 C 7,9 C 80 % 997,9 hPa 0,0 l/m 2 min 0 min 0,5 UV-I 729 W/m 36,0 km/h (5 Bft)
17.03.2013 12:18 8,4 C 7,9 C 79 % 997,9 hPa 0,0 l/m 0 min 0 min 1,1 UV-I 234 W/m 25,7 km/h (4 Bft)
17.03.2013 12:20 8,4 C 7,9 C 79 % 998,0 hPa 0,0 l/m 0 min 0 min 0,5 UV-I 267 W/m 28,3 km/h (4 Bft)
17.03.2013 12:22 8,3 C 7,3 C 78 % 997,9 hPa 0,0 l/m 0 min 0 min 1,0 UV-I 287 W/m 36,0 km/h (5 Bft)
17.03.2013 12:24 8,3 C 7,3 C 78 % 997,9 hPa 0,0 l/m 2 min 0 min 0,9 UV-I 643 W/m 30,9 km/h (5 Bft)
17.03.2013 12:26 8,2 C 7,3 C 79 % 997,9 hPa 0,0 l/m 0 min 0 min 0,0 UV-I 174 W/m 23,2 km/h (4 Bft)
17.03.2013 12:28 8,1 C 6,8 C 78 % 997,9 hPa 0,0 l/m 0 min 0 min 0,0 UV-I 144 W/m 25,7 km/h (4 Bft)
17.03.2013 12:30 8,0 C 6,8 C 79 % 997,9 hPa 0,0 l/m 0 min 0 min 0,0 UV-I 151 W/m 30,9 km/h (5 Bft)
17.03.2013 12:32 7,9 C 6,8 C 79 % 997,9 hPa 0,0 l/m 0 min 0 min 0,0 UV-I 162 W/m 25,7 km/h (4 Bft)
17.03.2013 12:34 7,8 C 6,8 C 79 % 997,9 hPa 0,0 l/m 0 min 0 min 0,0 UV-I 176 W/m 20,6 km/h (4 Bft)
17.03.2013 12:36 7,7 C 6,8 C 79 % 997,8 hPa 0,0 l/m 0 min 0 min 0,0 UV-I 179 W/m 23,2 km/h (4 Bft)
17.03.2013 12:38 7,7 C 6,8 C 80 % 997,8 hPa 0,0 l/m 0 min 0 min 0,0 UV-I 167 W/m 20,6 km/h (4 Bft)
17.03.2013 12:40 7,7 C 6,8 C 80 % 997,8 hPa 0,0 l/m 0 min 0 min 0,0 UV-I 178 W/m 25,7 km/h (4 Bft)
17.03.2013 12:42 7,6 C 7,3 C 80 % 997,9 hPa 0,0 l/m 0 min 0 min 0,0 UV-I 163 W/m 28,3 km/h (4 Bft)
17.03.2013 12:44 7,6 C 6,8 C 81 % 997,9 hPa 0,0 l/m 0 min 0 min 0,0 UV-I 172 W/m 23,2 km/h (4 Bft)
17.03.2013 12:46 7,6 C 7,3 C 80 % 997,8 hPa 0,0 l/m 0 min 0 min 0,0 UV-I 292 W/m 30,9 km/h (5 Bft)
17.03.2013 12:48 7,6 C 7,3 C 81 % 997,8 hPa 0,0 l/m 0 min 0 min 0,5 UV-I 304 W/m 18,0 km/h (3 Bft)
17.03.2013 12:50 7,6 C 7,9 C 81 % 997,8 hPa 0,0 l/m 0 min 0 min 0,6 UV-I 330 W/m 20,6 km/h (4 Bft)
17.03.2013 12:52 7,7 C 8,4 C 81 % 997,8 hPa 0,0 l/m 0 min 0 min 0,5 UV-I 330 W/m 25,7 km/h (4 Bft)
17.03.2013 12:54 7,8 C 8,4 C 80 % 997,7 hPa 0,0 l/m 0 min 0 min 1,4 UV-I 265 W/m 23,2 km/h (4 Bft)
17.03.2013 12:56 7,9 C 9,0 C 81 % 997,7 hPa 0,0 l/m 2 min 0 min 0,9 UV-I 775 W/m 23,2 km/h (4 Bft)
17.03.2013 12:58 8,1 C 8,4 C 81 % 997,7 hPa 0,0 l/m 0 min 0 min 0,7 UV-I 283 W/m 25,7 km/h (4 Bft)
17.03.2013 13:00 8,2 C 9,0 C 81 % 997,6 hPa 0,0 l/m 2 min 0 min 1,4 UV-I 731 W/m 20,6 km/h (4 Bft)
17.03.2013 13:02 8,3 C 9,0 C 80 % 997,6 hPa 0,0 l/m 2 min 0 min 1,3 UV-I 731 W/m 30,9 km/h (5 Bft)
17.03.2013 13:04 8,3 C 8,4 C 80 % 997,6 hPa 0,0 l/m 2 min 0 min 1,3 UV-I 663 W/m 28,3 km/h (4 Bft)
17.03.2013 13:06 8,4 C 8,4 C 79 % 997,5 hPa 0,0 l/m 2 min 0 min 1,3 UV-I 640 W/m 23,2 km/h (4 Bft)
17.03.2013 13:08 8,6 C 8,4 C 79 % 997,5 hPa 0,0 l/m 2 min 0 min 1,3 UV-I 640 W/m 23,2 km/h (4 Bft)
17.03.2013 13:10 8,6 C 8,4 C 79 % 997,5 hPa 0,0 l/m 2 min 0 min 0,8 UV-I 659 W/m 23,2 km/h (4 Bft)
17.03.2013 13:12 8,7 C 7,9 C 79 % 997,4 hPa 0,0 l/m 2 min 0 min 0,6 UV-I 659 W/m 12,9 km/h (3 Bft)
17.03.2013 13:14 8,8 C 7,9 C 78 % 997,5 hPa 0,0 l/m 2 min 0 min 1,3 UV-I 636 W/m 28,3 km/h (4 Bft)
17.03.2013 13:16 8,8 C 8,4 C 79 % 997,5 hPa 0,0 l/m 2 min 0 min 1,3 UV-I 626 W/m 23,2 km/h (4 Bft)
17.03.2013 13:18 8,9 C 8,4 C 77 % 997,4 hPa 0,0 l/m 2 min 0 min 1,3 UV-I 621 W/m 30,9 km/h (5 Bft)
17.03.2013 13:20 8,9 C 8,4 C 77 % 997,4 hPa 0,0 l/m 2 min 0 min 1,3 UV-I 615 W/m 33,5 km/h (5 Bft)
17.03.2013 13:22 9,0 C 7,9 C 77 % 997,3 hPa 0,0 l/m 2 min 0 min 1,3 UV-I 610 W/m 28,3 km/h (4 Bft)
17.03.2013 13:24 9,1 C 8,4 C 78 % 997,3 hPa 0,0 l/m 2 min 0 min 1,3 UV-I 633 W/m 20,6 km/h (4 Bft)
17.03.2013 13:26 9,1 C 8,4 C 76 % 997,2 hPa 0,0 l/m 2 min 0 min 1,3 UV-I 661 W/m 28,3 km/h (4 Bft)
17.03.2013 13:28 9,2 C 8,4 C 76 % 997,2 hPa 0,0 l/m 2 min 0 min 1,3 UV-I 640 W/m 30,9 km/h (5 Bft)
17.03.2013 13:30 9,2 C 8,4 C 77 % 997,1 hPa 0,0 l/m 2 min 0 min 1,2 UV-I 587 W/m 23,2 km/h (4 Bft)
17.03.2013 13:32 9,3 C 9,0 C 76 % 997,2 hPa 0,0 l/m 2 min 0 min 1,2 UV-I 610 W/m 23,2 km/h (4 Bft)
17.03.2013 13:34 9,3 C 8,4 C 75 % 997,1 hPa 0,0 l/m 2 min 0 min 1,3 UV-I 605 W/m 28,3 km/h (4 Bft)
17.03.2013 13:36 9,4 C 8,4 C 75 % 997,0 hPa 0,0 l/m 2 min 0 min 1,2 UV-I 598 W/m 18,0 km/h (3 Bft)
17.03.2013 13:38 9,4 C 8,4 C 76 % 997,0 hPa 0,0 l/m 2 min 0 min 1,2 UV-I 599 W/m 15,4 km/h (3 Bft)
17.03.2013 13:40 9,5 C 9,0 C 76 % 996,9 hPa 0,0 l/m 2 min 0 min 1,2 UV-I 603 W/m 15,4 km/h (3 Bft)
17.03.2013 13:42 9,6 C 8,4 C 74 % 997,0 hPa 0,0 l/m 2 min 0 min 1,2 UV-I 612 W/m 28,3 km/h (4 Bft)
17.03.2013 13:44 9,6 C 9,0 C 74 % 997,0 hPa 0,0 l/m 2 min 0 min 1,2 UV-I 613 W/m 23,2 km/h (4 Bft)
17.03.2013 13:46 9,6 C 8,4 C 74 % 997,0 hPa 0,0 l/m 2 min 0 min 1,2 UV-I 621 W/m 25,7 km/h (4 Bft)
17.03.2013 13:48 9,7 C 9,0 C 74 % 996,9 hPa 0,0 l/m 2 min 0 min 1,2 UV-I 578 W/m 18,0 km/h (3 Bft)
17.03.2013 13:50 9,7 C 9,0 C 74 % 996,9 hPa 0,0 l/m 2 min 0 min 1,2 UV-I 633 W/m 18,0 km/h (3 Bft)
17.03.2013 13:52 9,7 C 9,0 C 74 % 996,9 hPa 0,0 l/m 2 min 0 min 1,2 UV-I 647 W/m 25,7 km/h (4 Bft)
17.03.2013 13:54 9,7 C 8,4 C 74 % 996,8 hPa 0,0 l/m 0 min 0 min 0,7 UV-I 209 W/m 18,0 km/h (3 Bft)
17.03.2013 13:56 9,7 C 8,4 C 74 % 996,7 hPa 0,0 l/m 2 min 0 min 1,2 UV-I 666 W/m 23,2 km/h (4 Bft)
17.03.2013 13:58 9,8 C 9,0 C 75 % 996,7 hPa 0,0 l/m 2 min 0 min 0,0 UV-I 621 W/m 20,6 km/h (4 Bft)
17.03.2013 14:00 9,8 C 8,4 C 75 % 996,7 hPa 0,0 l/m 0 min 0 min 0,0 UV-I 165 W/m 25,7 km/h (4 Bft)
17.03.2013 14:02 9,7 C 7,9 C 74 % 996,6 hPa 0,0 l/m 0 min 0 min 0,0 UV-I 174 W/m 25,7 km/h (4 Bft)
17.03.2013 14:04 9,6 C 7,9 C 74 % 996,6 hPa 0,0 l/m 0 min 0 min 0,0 UV-I 185 W/m 15,4 km/h (3 Bft)
17.03.2013 14:06 9,5 C 7,9 C 74 % 996,7 hPa 0,0 l/m 0 min 0 min 0,0 UV-I 200 W/m 23,2 km/h (4 Bft)
17.03.2013 14:08 9,4 C 8,4 C 74 % 996,6 hPa 0,0 l/m 0 min 0 min 0,0 UV-I 160 W/m 23,2 km/h (4 Bft)
17.03.2013 14:10 9,3 C 7,9 C 75 % 996,7 hPa 0,0 l/m 0 min 0 min 0,0 UV-I 144 W/m 25,7 km/h (4 Bft)
17.03.2013 14:12 9,2 C 7,9 C 76 % 996,6 hPa 0,0 l/m 0 min 0 min 0,0 UV-I 165 W/m 25,7 km/h (4 Bft)
17.03.2013 14:14 9,1 C 7,9 C 76 % 996,7 hPa 0,0 l/m 0 min 0 min 0,0 UV-I 179 W/m 23,2 km/h (4 Bft)
17.03.2013 14:16 8,9 C 7,9 C 76 % 996,7 hPa 0,0 l/m 0 min 0 min 0,0 UV-I 169 W/m 36,0 km/h (5 Bft)
17.03.2013 14:18 8,9 C 7,9 C 77 % 996,7 hPa 0,0 l/m 0 min 0 min 0,0 UV-I 197 W/m 25,7 km/h (4 Bft)
17.03.2013 14:20 8,8 C 7,9 C 77 % 996,6 hPa 0,0 l/m 0 min 0 min 0,0 UV-I 144 W/m 28,3 km/h (4 Bft)
17.03.2013 14:22 8,8 C 7,9 C 77 % 996,6 hPa 0,0 l/m 0 min 0 min 0,0 UV-I 144 W/m 23,2 km/h (4 Bft)
17.03.2013 14:24 8,7 C 7,9 C 77 % 996,5 hPa 0,0 l/m 0 min 0 min 0,0 UV-I 199 W/m 23,2 km/h (4 Bft)
17.03.2013 14:26 8,7 C 7,9 C 78 % 996,6 hPa 0,0 l/m 0 min 0 min 0,0 UV-I 206 W/m 25,7 km/h (4 Bft)
17.03.2013 14:28 8,7 C 7,9 C 77 % 996,6 hPa 0,0 l/m 0 min 0 min 0,0 UV-I 169 W/m 25,7 km/h (4 Bft)
17.03.2013 14:30 8,6 C 7,9 C 77 % 996,6 hPa 0,0 l/m 0 min 0 min 0,0 UV-I 70 W/m 25,7 km/h (4 Bft)
17.03.2013 14:32 8,5 C 7,3 C 77 % 996,6 hPa 0,0 l/m 0 min 0 min 0,0 UV-I 77 W/m 12,9 km/h (3 Bft)
17.03.2013 14:34 8,5 C 7,3 C 77 % 996,6 hPa 0,0 l/m 0 min 0 min 0,0 UV-I 91 W/m 18,0 km/h (3 Bft)
17.03.2013 14:36 8,4 C 7,3 C 77 % 996,6 hPa 0,0 l/m 0 min 0 min 0,0 UV-I 98 W/m 20,6 km/h (4 Bft)
17.03.2013 14:38 8,4 C 7,3 C 78 % 996,6 hPa 0,0 l/m 0 min 0 min 0,0 UV-I 139 W/m 20,6 km/h (4 Bft)
17.03.2013 14:40 8,3 C 7,3 C 78 % 996,5 hPa 0,0 l/m 0 min 0 min 0,0 UV-I 165 W/m 25,7 km/h (4 Bft)
17.03.2013 14:42 8,3 C 7,3 C 78 % 996,5 hPa 0,0 l/m 0 min 0 min 0,0 UV-I 176 W/m 18,0 km/h (3 Bft)
17.03.2013 14:44 8,3 C 7,9 C 78 % 996,4 hPa 0,0 l/m 0 min 0 min 0,0 UV-I 183 W/m 18,0 km/h (3 Bft)
17.03.2013 14:46 8,3 C 7,9 C 79 % 996,5 hPa 0,0 l/m 0 min 0 min 0,0 UV-I 183 W/m 20,6 km/h (4 Bft)
17.03.2013 14:48 8,3 C 8,4 C 79 % 996,4 hPa 0,0 l/m 0 min 0 min 0,5 UV-I 183 W/m 23,2 km/h (4 Bft)
17.03.2013 14:50 8,4 C 9,0 C 79 % 996,3 hPa 0,0 l/m 2 min 0 min 0,9 UV-I 666 W/m 23,2 km/h (4 Bft)
17.03.2013 14:52 8,4 C 9,0 C 79 % 996,1 hPa 0,0 l/m 2 min 0 min 0,0 UV-I 656 W/m 25,7 km/h (4 Bft)
17.03.2013 14:54 8,6 C 9,0 C 79 % 996,1 hPa 0,0 l/m 0 min 0 min 0,0 UV-I 185 W/m 18,0 km/h (3 Bft)
17.03.2013 14:56 8,6 C 8,4 C 79 % 996,2 hPa 0,0 l/m 0 min 0 min 0,0 UV-I 102 W/m 15,4 km/h (3 Bft)
17.03.2013 14:58 8,6 C 7,9 C 78 % 996,0 hPa 0,0 l/m 0 min 0 min 0,0 UV-I 100 W/m 23,2 km/h (4 Bft)
17.03.2013 15:00 8,6 C 7,3 C 78 % 995,9 hPa 0,0 l/m 0 min 0 min 0,0 UV-I 111 W/m 18,0 km/h (3 Bft)
17.03.2013 15:02 8,5 C 7,3 C 78 % 995,9 hPa 0,0 l/m 0 min 0 min 0,0 UV-I 95 W/m 30,9 km/h (5 Bft)
17.03.2013 15:04 8,4 C 6,8 C 78 % 996,0 hPa 0,0 l/m 0 min 0 min 0,0 UV-I 121 W/m 28,3 km/h (4 Bft)
17.03.2013 15:06 8,3 C 6,8 C 78 % 996,0 hPa 0,0 l/m 0 min 0 min 0,0 UV-I 155 W/m 25,7 km/h (4 Bft)
17.03.2013 15:08 8,2 C 6,8 C 79 % 995,9 hPa 0,0 l/m 0 min 0 min 0,0 UV-I 125 W/m 23,2 km/h (4 Bft)
17.03.2013 15:10 8,2 C 6,8 C 79 % 995,9 hPa 0,0 l/m 0 min 0 min 0,0 UV-I 105 W/m 23,2 km/h (4 Bft)
17.03.2013 15:12 8,1 C 6,8 C 79 % 995,9 hPa 0,0 l/m 0 min 0 min 0,0 UV-I 146 W/m 30,9 km/h (5 Bft)
17.03.2013 15:14 8,0 C 6,8 C 80 % 995,9 hPa 0,0 l/m 0 min 0 min 0,0 UV-I 250 W/m 28,3 km/h (4 Bft)
17.03.2013 15:16 8,0 C 7,3 C 80 % 995,9 hPa 0,0 l/m 0 min 0 min 0,0 UV-I 227 W/m 28,3 km/h (4 Bft)
17.03.2013 15:18 7,9 C 7,3 C 80 % 995,9 hPa 0,0 l/m 0 min 0 min 0,0 UV-I 207 W/m 20,6 km/h (4 Bft)
17.03.2013 15:20 7,9 C 7,3 C 80 % 995,9 hPa 0,0 l/m 0 min 0 min 0,0 UV-I 230 W/m 28,3 km/h (4 Bft)
17.03.2013 15:22 7,9 C 7,3 C 80 % 995,9 hPa 0,0 l/m 0 min 0 min 0,0 UV-I 230 W/m 23,2 km/h (4 Bft)
17.03.2013 15:24 7,8 C 7,3 C 80 % 995,9 hPa 0,0 l/m 0 min 0 min 0,0 UV-I 251 W/m 20,6 km/h (4 Bft)
17.03.2013 15:26 7,9 C 7,9 C 80 % 996,0 hPa 0,0 l/m 2 min 0 min 0,0 UV-I 355 W/m 36,0 km/h (5 Bft)
17.03.2013 15:28 7,9 C 7,9 C 80 % 996,1 hPa 0,0 l/m 2 min 0 min 0,0 UV-I 294 W/m 28,3 km/h (4 Bft)
17.03.2013 15:30 7,9 C 7,9 C 80 % 995,9 hPa 0,0 l/m 2 min 0 min 0,0 UV-I 271 W/m 30,9 km/h (5 Bft)
17.03.2013 15:32 7,9 C 7,9 C 80 % 995,9 hPa 0,0 l/m 2 min 0 min 0,0 UV-I 292 W/m 23,2 km/h (4 Bft)
17.03.2013 15:34 7,9 C 7,9 C 80 % 995,9 hPa 0,0 l/m 2 min 0 min 0,0 UV-I 248 W/m 20,6 km/h (4 Bft)
17.03.2013 15:36 7,9 C 7,9 C 80 % 996,0 hPa 0,0 l/m 0 min 0 min 0,0 UV-I 221 W/m 23,2 km/h (4 Bft)
17.03.2013 15:38 8,0 C 7,9 C 80 % 996,0 hPa 0,0 l/m 0 min 0 min 0,0 UV-I 206 W/m 25,7 km/h (4 Bft)
17.03.2013 15:40 8,0 C 7,9 C 80 % 996,1 hPa 0,0 l/m 0 min 0 min 0,0 UV-I 142 W/m 20,6 km/h (4 Bft)
17.03.2013 15:42 7,9 C 7,3 C 80 % 996,1 hPa 0,0 l/m 0 min 0 min 0,0 UV-I 104 W/m 20,6 km/h (4 Bft)
17.03.2013 15:44 7,9 C 7,3 C 80 % 996,1 hPa 0,0 l/m 0 min 0 min 0,0 UV-I 100 W/m 25,7 km/h (4 Bft)
17.03.2013 15:46 7,8 C 6,8 C 80 % 996,2 hPa 0,0 l/m 0 min 0 min 0,0 UV-I 83 W/m 28,3 km/h (4 Bft)
17.03.2013 15:48 7,8 C 6,8 C 80 % 996,1 hPa 0,0 l/m 0 min 0 min 0,0 UV-I 74 W/m 41,2 km/h (6 Bft)
17.03.2013 15:50 7,8 C 6,8 C 80 % 996,1 hPa 0,0 l/m 0 min 0 min 0,0 UV-I 70 W/m 25,7 km/h (4 Bft)
17.03.2013 15:52 7,7 C 6,8 C 80 % 996,1 hPa 0,0 l/m 0 min 0 min 0,0 UV-I 62 W/m 23,2 km/h (4 Bft)
17.03.2013 15:54 7,6 C 6,2 C 81 % 996,0 hPa 0,0 l/m 0 min 0 min 0,0 UV-I 53 W/m 25,7 km/h (4 Bft)
17.03.2013 15:56 7,5 C 6,2 C 81 % 996,0 hPa 0,0 l/m 0 min 0 min 0,0 UV-I 51 W/m 38,6 km/h (5 Bft)
17.03.2013 15:58 7,4 C 6,2 C 80 % 996,0 hPa 0,0 l/m 0 min 0 min 0,0 UV-I 53 W/m 30,9 km/h (5 Bft)
17.03.2013 16:00 7,3 C 6,2 C 80 % 995,9 hPa 0,0 l/m 0 min 0 min 0,0 UV-I 72 W/m 28,3 km/h (4 Bft)
17.03.2013 16:02 7,2 C 6,2 C 81 % 995,9 hPa 0,0 l/m 0 min 0 min 0,0 UV-I 77 W/m 23,2 km/h (4 Bft)
17.03.2013 16:04 7,2 C 6,2 C 81 % 995,7 hPa 0,0 l/m 0 min 0 min 0,0 UV-I 76 W/m 23,2 km/h (4 Bft)
17.03.2013 16:06 7,1 C 5,7 C 81 % 995,7 hPa 0,0 l/m 0 min 0 min 0,0 UV-I 58 W/m 23,2 km/h (4 Bft)
17.03.2013 16:08 7,1 C 5,7 C 82 % 995,7 hPa 0,0 l/m 0 min 0 min 0,0 UV-I 56 W/m 20,6 km/h (4 Bft)
17.03.2013 16:10 7,0 C 5,7 C 82 % 995,6 hPa 0,0 l/m 0 min 0 min 0,0 UV-I 53 W/m 25,7 km/h (4 Bft)
17.03.2013 16:12 6,9 C 5,7 C 82 % 995,5 hPa 0,0 l/m 0 min 0 min 0,0 UV-I 51 W/m 12,9 km/h (3 Bft)
17.03.2013 16:14 6,9 C 5,7 C 82 % 995,5 hPa 0,0 l/m 0 min 0 min 0,0 UV-I 51 W/m 20,6 km/h (4 Bft)
17.03.2013 16:16 6,8 C 5,7 C 82 % 995,4 hPa 0,0 l/m 0 min 0 min 0,0 UV-I 56 W/m 25,7 km/h (4 Bft)
17.03.2013 16:18 6,8 C 5,7 C 82 % 995,4 hPa 0,0 l/m 0 min 0 min 0,0 UV-I 60 W/m 20,6 km/h (4 Bft)
17.03.2013 16:20 6,7 C 5,7 C 82 % 995,3 hPa 0,0 l/m 0 min 0 min 0,0 UV-I 60 W/m 25,7 km/h (4 Bft)
17.03.2013 16:22 6,7 C 5,7 C 82 % 995,3 hPa 0,0 l/m 0 min 0 min 0,0 UV-I 63 W/m 28,3 km/h (4 Bft)
17.03.2013 16:24 6,7 C 5,7 C 82 % 995,3 hPa 0,0 l/m 0 min 0 min 0,0 UV-I 67 W/m 20,6 km/h (4 Bft)
17.03.2013 16:26 6,6 C 5,7 C 83 % 995,3 hPa 0,0 l/m 0 min 0 min 0,0 UV-I 70 W/m 20,6 km/h (4 Bft)
17.03.2013 16:28 6,6 C 5,7 C 83 % 995,3 hPa 0,0 l/m 0 min 0 min 0,0 UV-I 51 W/m 23,2 km/h (4 Bft)
17.03.2013 16:30 6,6 C 5,7 C 83 % 995,2 hPa 0,0 l/m 0 min 0 min 0,0 UV-I 21 W/m 18,0 km/h (3 Bft)
17.03.2013 16:32 6,6 C 5,1 C 83 % 995,2 hPa 0,0 l/m 0 min 0 min 0,0 UV-I 21 W/m 36,0 km/h (5 Bft)
17.03.2013 16:34 6,4 C 5,1 C 83 % 995,3 hPa 0,0 l/m 0 min 0 min 0,0 UV-I 30 W/m 46,3 km/h (6 Bft)
17.03.2013 16:36 6,4 C 5,1 C 83 % 995,2 hPa 0,0 l/m 0 min 0 min 0,0 UV-I 40 W/m 28,3 km/h (4 Bft)
17.03.2013 16:38 6,3 C 5,1 C 83 % 995,4 hPa 0,0 l/m 0 min 0 min 0,0 UV-I 49 W/m 38,6 km/h (5 Bft)
17.03.2013 16:40 6,3 C 5,1 C 84 % 995,2 hPa 0,0 l/m 0 min 0 min 0,0 UV-I 46 W/m 38,6 km/h (5 Bft)
17.03.2013 16:42 6,3 C 5,1 C 84 % 995,3 hPa 0,0 l/m 0 min 0 min 0,0 UV-I 40 W/m 36,0 km/h (5 Bft)
17.03.2013 16:44 6,2 C 5,1 C 84 % 995,3 hPa 0,0 l/m 0 min 0 min 0,0 UV-I 35 W/m 28,3 km/h (4 Bft)
17.03.2013 16:46 6,2 C 5,1 C 84 % 995,3 hPa 0,0 l/m 0 min 0 min 0,0 UV-I 30 W/m 12,9 km/h (3 Bft)
17.03.2013 16:48 6,2 C 5,1 C 84 % 995,3 hPa 0,0 l/m 0 min 0 min 0,0 UV-I 28 W/m 23,2 km/h (4 Bft)
17.03.2013 16:50 6,2 C 5,1 C 84 % 995,4 hPa 0,0 l/m 0 min 0 min 0,0 UV-I 28 W/m 25,7 km/h (4 Bft)
17.03.2013 16:52 6,2 C 5,1 C 84 % 995,6 hPa 0,0 l/m 0 min 0 min 0,0 UV-I 28 W/m 18,0 km/h (3 Bft)
17.03.2013 16:54 6,1 C 5,1 C 84 % 995,6 hPa 0,0 l/m 0 min 0 min 0,0 UV-I 26 W/m 20,6 km/h (4 Bft)
17.03.2013 16:56 6,1 C 5,1 C 85 % 995,8 hPa 0,0 l/m 0 min 0 min 0,0 UV-I 23 W/m 25,7 km/h (4 Bft)
17.03.2013 16:58 6,1 C 5,1 C 85 % 995,9 hPa 0,0 l/m 0 min 0 min 0,0 UV-I 18 W/m 33,5 km/h (5 Bft)
17.03.2013 17:00 6,1 C 5,1 C 85 % 995,8 hPa 0,0 l/m 0 min 0 min 0,0 UV-I 19 W/m 28,3 km/h (4 Bft)
17.03.2013 17:02 6,1 C 5,1 C 85 % 995,8 hPa 0,0 l/m 0 min 0 min 0,0 UV-I 26 W/m 25,7 km/h (4 Bft)
17.03.2013 17:04 6,1 C 5,1 C 85 % 995,8 hPa 0,0 l/m 0 min 0 min 0,0 UV-I 42 W/m 20,6 km/h (4 Bft)
17.03.2013 17:06 6,0 C 5,1 C 85 % 995,8 hPa 0,0 l/m 0 min 0 min 0,0 UV-I 42 W/m 25,7 km/h (4 Bft)
17.03.2013 17:08 6,0 C 5,1 C 85 % 995,6 hPa 0,0 l/m 0 min 0 min 0,0 UV-I 51 W/m 30,9 km/h (5 Bft)
17.03.2013 17:10 5,9 C 5,1 C 85 % 995,7 hPa 0,0 l/m 0 min 0 min 0,0 UV-I 74 W/m 33,5 km/h (5 Bft)
17.03.2013 17:12 6,0 C 5,1 C 85 % 995,6 hPa 0,0 l/m 0 min 0 min 0,0 UV-I 84 W/m 25,7 km/h (4 Bft)
17.03.2013 17:14 6,0 C 5,1 C 85 % 995,6 hPa 0,0 l/m 0 min 0 min 0,0 UV-I 84 W/m 28,3 km/h (4 Bft)
17.03.2013 17:16 6,0 C 5,1 C 85 % 995,6 hPa 0,0 l/m 0 min 0 min 0,0 UV-I 76 W/m 20,6 km/h (4 Bft)
17.03.2013 17:18 6,0 C 5,1 C 85 % 995,6 hPa 0,0 l/m 0 min 0 min 0,0 UV-I 67 W/m 20,6 km/h (4 Bft)
17.03.2013 17:20 6,0 C 5,1 C 86 % 995,6 hPa 0,0 l/m 0 min 0 min 0,0 UV-I 60 W/m 23,2 km/h (4 Bft)
17.03.2013 17:22 6,0 C 5,1 C 85 % 995,7 hPa 0,0 l/m 0 min 0 min 0,0 UV-I 51 W/m 30,9 km/h (5 Bft)
17.03.2013 17:24 6,0 C 5,1 C 86 % 995,7 hPa 0,0 l/m 0 min 0 min 0,0 UV-I 46 W/m 23,2 km/h (4 Bft)
17.03.2013 17:26 6,0 C 5,1 C 86 % 995,6 hPa 0,0 l/m 0 min 0 min 0,0 UV-I 42 W/m 23,2 km/h (4 Bft)
17.03.2013 17:28 5,9 C 5,1 C 85 % 995,7 hPa 0,0 l/m 0 min 0 min 0,0 UV-I 39 W/m 20,6 km/h (4 Bft)
17.03.2013 17:30 6,0 C 5,1 C 86 % 995,6 hPa 0,0 l/m 0 min 0 min 0,0 UV-I 37 W/m 28,3 km/h (4 Bft)
17.03.2013 17:32 5,9 C 5,1 C 86 % 995,6 hPa 0,0 l/m 0 min 0 min 0,0 UV-I 33 W/m 25,7 km/h (4 Bft)
17.03.2013 17:34 5,9 C 5,1 C 86 % 995,6 hPa 0,0 l/m 0 min 0 min 0,0 UV-I 32 W/m 25,7 km/h (4 Bft)
17.03.2013 17:36 5,9 C 4,6 C 86 % 995,7 hPa 0,0 l/m 0 min 0 min 0,0 UV-I 26 W/m 28,3 km/h (4 Bft)
17.03.2013 17:38 5,9 C 4,6 C 86 % 995,6 hPa 0,0 l/m 0 min 0 min 0,0 UV-I 21 W/m 20,6 km/h (4 Bft)
17.03.2013 17:40 5,9 C 4,6 C 86 % 995,5 hPa 0,0 l/m 0 min 0 min 0,0 UV-I 21 W/m 15,4 km/h (3 Bft)
17.03.2013 17:42 5,9 C 4,6 C 86 % 995,4 hPa 0,0 l/m 0 min 0 min 0,0 UV-I 26 W/m 20,6 km/h (4 Bft)
17.03.2013 17:44 5,8 C 4,6 C 86 % 995,4 hPa 0,0 l/m 0 min 0 min 0,0 UV-I 30 W/m 23,2 km/h (4 Bft)
17.03.2013 17:46 5,8 C 4,6 C 86 % 995,3 hPa 0,0 l/m 0 min 0 min 0,0 UV-I 28 W/m 20,6 km/h (4 Bft)
17.03.2013 17:48 5,8 C 4,6 C 86 % 995,4 hPa 0,0 l/m 0 min 0 min 0,0 UV-I 26 W/m 23,2 km/h (4 Bft)
17.03.2013 17:50 5,8 C 4,6 C 86 % 995,4 hPa 0,0 l/m 0 min 0 min 0,0 UV-I 21 W/m 15,4 km/h (3 Bft)
17.03.2013 17:52 5,8 C 4,6 C 86 % 995,4 hPa 0,0 l/m 0 min 0 min 0,0 UV-I 18 W/m 28,3 km/h (4 Bft)
17.03.2013 17:54 5,8 C 4,6 C 86 % 995,3 hPa 0,0 l/m 0 min 0 min 0,0 UV-I 14 W/m 36,0 km/h (5 Bft)
17.03.2013 17:56 5,8 C 4,6 C 86 % 995,2 hPa 0,0 l/m 0 min 0 min 0,0 UV-I 12 W/m 25,7 km/h (4 Bft)
17.03.2013 17:58 5,7 C 4,6 C 86 % 995,2 hPa 0,0 l/m 0 min 2 min 0,0 UV-I 12 W/m 20,6 km/h (4 Bft)
17.03.2013 18:00 5,7 C 4,6 C 86 % 995,1 hPa 0,0 l/m 0 min 2 min 0,0 UV-I 14 W/m 7,7 km/h (2 Bft)
17.03.2013 18:02 5,7 C 4,0 C 87 % 995,2 hPa 0,0 l/m 0 min 2 min 0,0 UV-I 12 W/m 25,7 km/h (4 Bft)
17.03.2013 18:04 5,7 C 4,0 C 87 % 995,1 hPa 0,0 l/m 0 min 2 min 0,0 UV-I 11 W/m 15,4 km/h (3 Bft)
17.03.2013 18:06 5,7 C 4,0 C 87 % 995,1 hPa 0,2 l/m 0 min 2 min 0,0 UV-I 9 W/m 28,3 km/h (4 Bft)
17.03.2013 18:08 5,7 C 4,0 C 88 % 995,1 hPa 0,0 l/m 0 min 0 min 0,0 UV-I 9 W/m 25,7 km/h (4 Bft)
17.03.2013 18:10 5,7 C 3,4 C 88 % 995,2 hPa 0,0 l/m 0 min 0 min 0,0 UV-I 9 W/m 18,0 km/h (3 Bft)
17.03.2013 18:12 5,6 C 3,4 C 88 % 995,1 hPa 0,0 l/m 0 min 2 min 0,0 UV-I 7 W/m 20,6 km/h (4 Bft)
17.03.2013 18:14 5,6 C 3,4 C 88 % 995,1 hPa 0,0 l/m 0 min 2 min 0,0 UV-I 9 W/m 23,2 km/h (4 Bft)
17.03.2013 18:16 5,6 C 3,4 C 88 % 995,0 hPa 0,0 l/m 0 min 2 min 0,0 UV-I 9 W/m 15,4 km/h (3 Bft)
17.03.2013 18:18 5,6 C 3,4 C 89 % 995,0 hPa 0,0 l/m 0 min 2 min 0,0 UV-I 7 W/m 23,2 km/h (4 Bft)
17.03.2013 18:20 5,5 C 3,4 C 89 % 994,9 hPa 0,0 l/m 0 min 2 min 0,0 UV-I 7 W/m 12,9 km/h (3 Bft)
17.03.2013 18:22 5,5 C 3,4 C 89 % 994,9 hPa 0,0 l/m 0 min 2 min 0,0 UV-I 7 W/m 12,9 km/h (3 Bft)
17.03.2013 18:24 5,4 C 3,4 C 89 % 994,9 hPa 0,0 l/m 0 min 2 min 0,0 UV-I 5 W/m 23,2 km/h (4 Bft)
17.03.2013 18:26 5,4 C 3,4 C 89 % 994,8 hPa 0,0 l/m 0 min 2 min 0,0 UV-I 5 W/m 20,6 km/h (4 Bft)
17.03.2013 18:28 5,3 C 3,4 C 89 % 994,8 hPa 0,0 l/m 0 min 2 min 0,0 UV-I 7 W/m 15,4 km/h (3 Bft)
17.03.2013 18:30 5,3 C 3,4 C 89 % 994,7 hPa 0,0 l/m 0 min 2 min 0,0 UV-I 7 W/m 23,2 km/h (4 Bft)
17.03.2013 18:32 5,2 C 3,4 C 90 % 994,7 hPa 0,0 l/m 0 min 2 min 0,0 UV-I 5 W/m 20,6 km/h (4 Bft)
17.03.2013 18:34 5,2 C 2,9 C 90 % 994,7 hPa 0,0 l/m 0 min 2 min 0,0 UV-I 5 W/m 20,6 km/h (4 Bft)
17.03.2013 18:36 5,2 C 2,9 C 90 % 994,7 hPa 0,0 l/m 0 min 2 min 0,0 UV-I 0 W/m 18,0 km/h (3 Bft)
17.03.2013 18:38 5,2 C 2,9 C 91 % 994,6 hPa 0,0 l/m 0 min 0 min 0,0 UV-I 0 W/m 12,9 km/h (3 Bft)
17.03.2013 18:40 5,1 C 2,9 C 91 % 994,6 hPa 0,0 l/m 0 min 0 min 0,0 UV-I 0 W/m 12,9 km/h (3 Bft)
17.03.2013 18:42 5,1 C 2,9 C 91 % 994,5 hPa 0,0 l/m 0 min 0 min 0,0 UV-I 0 W/m 18,0 km/h (3 Bft)
17.03.2013 18:44 5,0 C 2,9 C 91 % 994,5 hPa 0,0 l/m 0 min 0 min 0,0 UV-I 0 W/m 30,9 km/h (5 Bft)
17.03.2013 18:46 4,9 C 2,9 C 91 % 994,5 hPa 0,0 l/m 0 min 0 min 0,0 UV-I 0 W/m 20,6 km/h (4 Bft)
17.03.2013 18:48 4,9 C 2,9 C 91 % 994,6 hPa 0,0 l/m 0 min 0 min 0,0 UV-I 0 W/m 20,6 km/h (4 Bft)
17.03.2013 18:50 4,9 C 2,9 C 91 % 994,6 hPa 0,0 l/m 0 min 0 min 0,0 UV-I 0 W/m 20,6 km/h (4 Bft)
17.03.2013 18:52 4,8 C 2,9 C 91 % 994,5 hPa 0,0 l/m 0 min 0 min 0,0 UV-I 0 W/m 23,2 km/h (4 Bft)
17.03.2013 18:54 4,8 C 2,9 C 91 % 994,5 hPa 0,0 l/m 0 min 0 min 0,0 UV-I 0 W/m 10,3 km/h (2 Bft)
17.03.2013 18:56 4,8 C 2,9 C 92 % 994,5 hPa 0,0 l/m 0 min 0 min 0,0 UV-I 0 W/m 18,0 km/h (3 Bft)
17.03.2013 18:58 4,8 C 2,9 C 92 % 994,5 hPa 0,0 l/m 0 min 0 min 0,0 UV-I 0 W/m 18,0 km/h (3 Bft)
17.03.2013 19:00 4,8 C 2,9 C 92 % 994,6 hPa 0,0 l/m 0 min 0 min 0,0 UV-I 0 W/m 23,2 km/h (4 Bft)
17.03.2013 19:02 4,8 C 2,9 C 92 % 994,6 hPa 0,0 l/m 0 min 0 min 0,0 UV-I 0 W/m 15,4 km/h (3 Bft)
17.03.2013 19:04 4,8 C 2,9 C 92 % 994,6 hPa 0,0 l/m 0 min 0 min 0,0 UV-I 0 W/m 12,9 km/h (3 Bft)
17.03.2013 19:06 4,8 C 2,9 C 92 % 994,6 hPa 0,0 l/m 0 min 0 min 0,0 UV-I 0 W/m 12,9 km/h (3 Bft)
17.03.2013 19:08 4,7 C 2,9 C 92 % 994,5 hPa 0,0 l/m 0 min 0 min 0,0 UV-I 0 W/m 18,0 km/h (3 Bft)
17.03.2013 19:10 4,7 C 2,9 C 92 % 994,5 hPa 0,0 l/m 0 min 0 min 0,0 UV-I 0 W/m 18,0 km/h (3 Bft)
17.03.2013 19:12 4,7 C 2,9 C 92 % 994,5 hPa 0,0 l/m 0 min 0 min 0,0 UV-I 0 W/m 25,7 km/h (4 Bft)
17.03.2013 19:14 4,7 C 2,9 C 92 % 994,4 hPa 0,0 l/m 0 min 0 min 0,0 UV-I 0 W/m 5,1 km/h (1 Bft)
17.03.2013 19:16 4,7 C 2,9 C 92 % 994,4 hPa 0,0 l/m 0 min 0 min 0,0 UV-I 0 W/m 20,6 km/h (4 Bft)
17.03.2013 19:18 4,7 C 2,9 C 93 % 994,5 hPa 0,0 l/m 0 min 0 min 0,0 UV-I 0 W/m 20,6 km/h (4 Bft)
17.03.2013 19:20 4,7 C 2,9 C 93 % 994,4 hPa 0,0 l/m 0 min 0 min 0,0 UV-I 0 W/m 18,0 km/h (3 Bft)
17.03.2013 19:22 4,7 C 2,9 C 93 % 994,4 hPa 0,0 l/m 0 min 0 min 0,0 UV-I 0 W/m 10,3 km/h (2 Bft)
17.03.2013 19:24 4,6 C 2,9 C 93 % 994,3 hPa 0,0 l/m 0 min 0 min 0,0 UV-I 0 W/m 10,3 km/h (2 Bft)
17.03.2013 19:26 4,6 C 2,9 C 93 % 994,3 hPa 0,0 l/m 0 min 0 min 0,0 UV-I 0 W/m 28,3 km/h (4 Bft)
17.03.2013 19:28 4,6 C 2,9 C 93 % 994,3 hPa 0,0 l/m 0 min 0 min 0,0 UV-I 0 W/m 15,4 km/h (3 Bft)
17.03.2013 19:30 4,6 C 2,9 C 93 % 994,4 hPa 0,0 l/m 0 min 0 min 0,0 UV-I 0 W/m 12,9 km/h (3 Bft)
17.03.2013 19:32 4,6 C 2,9 C 93 % 994,4 hPa 0,0 l/m 0 min 0 min 0,0 UV-I 0 W/m 12,9 km/h (3 Bft)
17.03.2013 19:34 4,6 C 2,9 C 93 % 994,4 hPa 0,0 l/m 0 min 0 min 0,0 UV-I 0 W/m 20,6 km/h (4 Bft)
17.03.2013 19:36 4,6 C 2,9 C 93 % 994,4 hPa 0,0 l/m 0 min 0 min 0,0 UV-I 0 W/m 10,3 km/h (2 Bft)
17.03.2013 19:38 4,6 C 2,9 C 93 % 994,3 hPa 0,0 l/m 0 min 0 min 0,0 UV-I 0 W/m 5,1 km/h (1 Bft)
17.03.2013 19:40 4,6 C 2,9 C 93 % 994,3 hPa 0,0 l/m 0 min 0 min 0,0 UV-I 0 W/m 12,9 km/h (3 Bft)
17.03.2013 19:42 4,6 C 2,9 C 93 % 994,3 hPa 0,0 l/m 0 min 0 min 0,0 UV-I 0 W/m 15,4 km/h (3 Bft)
17.03.2013 19:44 4,6 C 2,9 C 93 % 994,3 hPa 0,0 l/m 0 min 2 min 0,0 UV-I 0 W/m 15,4 km/h (3 Bft)
17.03.2013 19:46 4,6 C 2,9 C 93 % 994,3 hPa 0,0 l/m 0 min 2 min 0,0 UV-I 0 W/m 18,0 km/h (3 Bft)
17.03.2013 19:48 4,6 C 2,9 C 93 % 994,2 hPa 0,0 l/m 0 min 0 min 0,0 UV-I 0 W/m 10,3 km/h (2 Bft)
17.03.2013 19:50 4,6 C 2,9 C 93 % 994,2 hPa 0,0 l/m 0 min 0 min 0,0 UV-I 0 W/m 20,6 km/h (4 Bft)
17.03.2013 19:52 4,6 C 2,9 C 93 % 994,1 hPa 0,0 l/m 0 min 2 min 0,0 UV-I 0 W/m 18,0 km/h (3 Bft)
17.03.2013 19:54 4,6 C 2,9 C 93 % 994,1 hPa 0,0 l/m 0 min 2 min 0,0 UV-I 0 W/m 12,9 km/h (3 Bft)
17.03.2013 19:56 4,6 C 2,9 C 93 % 994,1 hPa 0,0 l/m 0 min 2 min 0,0 UV-I 0 W/m 20,6 km/h (4 Bft)
17.03.2013 19:58 4,6 C 2,9 C 93 % 994,1 hPa 0,0 l/m 0 min 2 min 0,0 UV-I 0 W/m 12,9 km/h (3 Bft)
17.03.2013 20:00 4,6 C 2,9 C 94 % 994,1 hPa 0,0 l/m 0 min 2 min 0,0 UV-I 0 W/m 5,1 km/h (1 Bft)
17.03.2013 20:02 4,6 C 2,9 C 94 % 994,1 hPa 0,0 l/m 0 min 2 min 0,0 UV-I 0 W/m 23,2 km/h (4 Bft)
17.03.2013 20:04 4,6 C 2,9 C 94 % 994,1 hPa 0,0 l/m 0 min 2 min 0,0 UV-I 0 W/m 7,7 km/h (2 Bft)
17.03.2013 20:06 4,6 C 2,9 C 94 % 994,0 hPa 0,0 l/m 0 min 2 min 0,0 UV-I 0 W/m 15,4 km/h (3 Bft)
17.03.2013 20:08 4,6 C 2,9 C 94 % 994,0 hPa 0,0 l/m 0 min 2 min 0,0 UV-I 0 W/m 18,0 km/h (3 Bft)
17.03.2013 20:10 4,6 C 2,9 C 94 % 994,0 hPa 0,2 l/m 0 min 2 min 0,0 UV-I 0 W/m 18,0 km/h (3 Bft)
17.03.2013 20:12 4,6 C 2,9 C 94 % 994,0 hPa 0,0 l/m 0 min 2 min 0,0 UV-I 0 W/m 18,0 km/h (3 Bft)
17.03.2013 20:14 4,6 C 2,9 C 94 % 994,0 hPa 0,0 l/m 0 min 2 min 0,0 UV-I 0 W/m 12,9 km/h (3 Bft)
17.03.2013 20:16 4,6 C 2,9 C 94 % 993,9 hPa 0,0 l/m 0 min 2 min 0,0 UV-I 0 W/m 20,6 km/h (4 Bft)
17.03.2013 20:18 4,5 C 2,9 C 94 % 993,9 hPa 0,0 l/m 0 min 2 min 0,0 UV-I 0 W/m 7,7 km/h (2 Bft)
17.03.2013 20:20 4,5 C 2,9 C 94 % 993,8 hPa 0,0 l/m 0 min 2 min 0,0 UV-I 0 W/m 23,2 km/h (4 Bft)
17.03.2013 20:22 4,5 C 2,9 C 94 % 993,8 hPa 0,0 l/m 0 min 2 min 0,0 UV-I 0 W/m 20,6 km/h (4 Bft)
17.03.2013 20:24 4,5 C 2,9 C 94 % 993,7 hPa 0,0 l/m 0 min 2 min 0,0 UV-I 0 W/m 10,3 km/h (2 Bft)
17.03.2013 20:26 4,5 C 2,9 C 94 % 993,7 hPa 0,0 l/m 0 min 2 min 0,0 UV-I 0 W/m 18,0 km/h (3 Bft)
17.03.2013 20:28 4,4 C 2,9 C 94 % 993,7 hPa 0,0 l/m 0 min 2 min 0,0 UV-I 0 W/m 10,3 km/h (2 Bft)
17.03.2013 20:30 4,4 C 2,9 C 94 % 993,7 hPa 0,0 l/m 0 min 2 min 0,0 UV-I 0 W/m 10,3 km/h (2 Bft)
17.03.2013 20:32 4,4 C 2,9 C 94 % 993,7 hPa 0,0 l/m 0 min 0 min 0,0 UV-I 0 W/m 5,1 km/h (1 Bft)
17.03.2013 20:34 4,4 C 2,9 C 95 % 993,6 hPa 0,0 l/m 0 min 0 min 0,0 UV-I 0 W/m 7,7 km/h (2 Bft)
17.03.2013 20:36 4,4 C 2,9 C 95 % 993,6 hPa 0,0 l/m 0 min 0 min 0,0 UV-I 0 W/m 10,3 km/h (2 Bft)
17.03.2013 20:38 4,4 C 2,9 C 94 % 993,7 hPa 0,0 l/m 0 min 0 min 0,0 UV-I 0 W/m 7,7 km/h (2 Bft)
17.03.2013 20:40 4,4 C 2,9 C 94 % 993,7 hPa 0,0 l/m 0 min 0 min 0,0 UV-I 0 W/m 10,3 km/h (2 Bft)
17.03.2013 20:42 4,4 C 2,9 C 95 % 993,7 hPa 0,0 l/m 0 min 0 min 0,0 UV-I 0 W/m 12,9 km/h (3 Bft)
17.03.2013 20:44 4,4 C 2,9 C 95 % 993,7 hPa 0,0 l/m 0 min 0 min 0,0 UV-I 0 W/m 7,7 km/h (2 Bft)
17.03.2013 20:46 4,4 C 2,9 C 95 % 993,7 hPa 0,0 l/m 0 min 0 min 0,0 UV-I 0 W/m 10,3 km/h (2 Bft)
17.03.2013 20:48 4,4 C 2,9 C 95 % 993,6 hPa 0,0 l/m 0 min 0 min 0,0 UV-I 0 W/m 12,9 km/h (3 Bft)
17.03.2013 20:50 4,3 C 2,9 C 95 % 993,6 hPa 0,0 l/m 0 min 0 min 0,0 UV-I 0 W/m 18,0 km/h (3 Bft)
17.03.2013 20:52 4,3 C 2,9 C 95 % 993,6 hPa 0,0 l/m 0 min 0 min 0,0 UV-I 0 W/m 5,1 km/h (1 Bft)
17.03.2013 20:54 4,3 C 2,9 C 95 % 993,6 hPa 0,0 l/m 0 min 0 min 0,0 UV-I 0 W/m 7,7 km/h (2 Bft)
17.03.2013 20:56 4,3 C 2,9 C 95 % 993,6 hPa 0,0 l/m 0 min 0 min 0,0 UV-I 0 W/m 23,2 km/h (4 Bft)
17.03.2013 20:58 4,3 C 2,9 C 95 % 993,5 hPa 0,0 l/m 0 min 0 min 0,0 UV-I 0 W/m 20,6 km/h (4 Bft)
17.03.2013 21:00 4,3 C 2,9 C 95 % 993,4 hPa 0,0 l/m 0 min 0 min 0,0 UV-I 0 W/m 10,3 km/h (2 Bft)
17.03.2013 21:02 4,3 C 2,9 C 95 % 993,4 hPa 0,0 l/m 0 min 0 min 0,0 UV-I 0 W/m 10,3 km/h (2 Bft)
17.03.2013 21:04 4,3 C 2,9 C 95 % 993,4 hPa 0,0 l/m 0 min 0 min 0,0 UV-I 0 W/m 15,4 km/h (3 Bft)
17.03.2013 21:06 4,3 C 2,9 C 95 % 993,3 hPa 0,0 l/m 0 min 0 min 0,0 UV-I 0 W/m 7,7 km/h (2 Bft)
17.03.2013 21:08 4,3 C 2,9 C 95 % 993,3 hPa 0,0 l/m 0 min 2 min 0,0 UV-I 0 W/m 10,3 km/h (2 Bft)
17.03.2013 21:10 4,3 C 2,9 C 95 % 993,2 hPa 0,0 l/m 0 min 0 min 0,0 UV-I 0 W/m 25,7 km/h (4 Bft)
17.03.2013 21:12 4,3 C 2,9 C 95 % 993,2 hPa 0,0 l/m 0 min 0 min 0,0 UV-I 0 W/m 18,0 km/h (3 Bft)
17.03.2013 21:14 4,3 C 2,9 C 95 % 993,2 hPa 0,0 l/m 0 min 0 min 0,0 UV-I 0 W/m 10,3 km/h (2 Bft)
17.03.2013 21:16 4,3 C 2,9 C 95 % 993,3 hPa 0,0 l/m 0 min 0 min 0,0 UV-I 0 W/m 12,9 km/h (3 Bft)
17.03.2013 21:18 4,2 C 2,9 C 95 % 993,3 hPa 0,0 l/m 0 min 0 min 0,0 UV-I 0 W/m 10,3 km/h (2 Bft)
17.03.2013 21:20 4,2 C 2,9 C 95 % 993,3 hPa 0,0 l/m 0 min 0 min 0,0 UV-I 0 W/m 20,6 km/h (4 Bft)
17.03.2013 21:22 4,2 C 2,9 C 95 % 993,2 hPa 0,0 l/m 0 min 0 min 0,0 UV-I 0 W/m 20,6 km/h (4 Bft)
17.03.2013 21:24 4,2 C 2,9 C 95 % 993,2 hPa 0,0 l/m 0 min 0 min 0,0 UV-I 0 W/m 12,9 km/h (3 Bft)
17.03.2013 21:26 4,2 C 2,9 C 95 % 993,3 hPa 0,0 l/m 0 min 0 min 0,0 UV-I 0 W/m 23,2 km/h (4 Bft)
17.03.2013 21:28 4,2 C 2,9 C 95 % 993,3 hPa 0,0 l/m 0 min 0 min 0,0 UV-I 0 W/m 18,0 km/h (3 Bft)
17.03.2013 21:30 4,2 C 2,9 C 95 % 993,3 hPa 0,0 l/m 0 min 0 min 0,0 UV-I 0 W/m 12,9 km/h (3 Bft)
17.03.2013 21:32 4,2 C 2,9 C 95 % 993,3 hPa 0,0 l/m 0 min 0 min 0,0 UV-I 0 W/m 18,0 km/h (3 Bft)
17.03.2013 21:34 4,2 C 2,9 C 95 % 993,3 hPa 0,0 l/m 0 min 0 min 0,0 UV-I 0 W/m 15,4 km/h (3 Bft)
17.03.2013 21:36 4,2 C 2,9 C 95 % 993,3 hPa 0,0 l/m 0 min 0 min 0,0 UV-I 0 W/m 10,3 km/h (2 Bft)
17.03.2013 21:38 4,2 C 2,9 C 95 % 993,3 hPa 0,0 l/m 0 min 0 min 0,0 UV-I 0 W/m 10,3 km/h (2 Bft)
17.03.2013 21:40 4,2 C 2,9 C 95 % 993,2 hPa 0,0 l/m 0 min 0 min 0,0 UV-I 0 W/m 12,9 km/h (3 Bft)
17.03.2013 21:42 4,2 C 2,9 C 95 % 993,3 hPa 0,0 l/m 0 min 0 min 0,0 UV-I 0 W/m 10,3 km/h (2 Bft)
17.03.2013 21:44 4,2 C 2,9 C 95 % 993,2 hPa 0,0 l/m 0 min 0 min 0,0 UV-I 0 W/m 15,4 km/h (3 Bft)
17.03.2013 21:46 4,2 C 2,9 C 95 % 993,2 hPa 0,0 l/m 0 min 0 min 0,0 UV-I 0 W/m 7,7 km/h (2 Bft)
17.03.2013 21:48 4,2 C 2,9 C 95 % 993,3 hPa 0,0 l/m 0 min 0 min 0,0 UV-I 0 W/m 10,3 km/h (2 Bft)
17.03.2013 21:50 4,2 C 2,9 C 95 % 993,2 hPa 0,0 l/m 0 min 0 min 0,0 UV-I 0 W/m 15,4 km/h (3 Bft)
17.03.2013 21:52 4,2 C 2,9 C 95 % 993,2 hPa 0,0 l/m 0 min 0 min 0,0 UV-I 0 W/m 18,0 km/h (3 Bft)
17.03.2013 21:54 4,2 C 2,9 C 95 % 993,1 hPa 0,0 l/m 0 min 0 min 0,0 UV-I 0 W/m 12,9 km/h (3 Bft)
17.03.2013 21:56 4,2 C 2,9 C 95 % 993,0 hPa 0,0 l/m 0 min 0 min 0,0 UV-I 0 W/m 12,9 km/h (3 Bft)
17.03.2013 21:58 4,2 C 2,9 C 95 % 992,8 hPa 0,0 l/m 0 min 0 min 0,0 UV-I 0 W/m 12,9 km/h (3 Bft)
17.03.2013 22:00 4,2 C 2,9 C 95 % 992,7 hPa 0,0 l/m 0 min 0 min 0,0 UV-I 0 W/m 0,0 km/h (0 Bft)
17.03.2013 22:02 4,2 C 2,9 C 95 % 992,7 hPa 0,0 l/m 0 min 0 min 0,0 UV-I 0 W/m 5,1 km/h (1 Bft)
17.03.2013 22:04 4,2 C 2,3 C 95 % 992,8 hPa 0,0 l/m 0 min 0 min 0,0 UV-I 0 W/m 15,4 km/h (3 Bft)
17.03.2013 22:06 4,2 C 2,3 C 95 % 992,8 hPa 0,0 l/m 0 min 0 min 0,0 UV-I 0 W/m 10,3 km/h (2 Bft)
17.03.2013 22:08 4,2 C 2,3 C 95 % 992,8 hPa 0,0 l/m 0 min 0 min 0,0 UV-I 0 W/m 15,4 km/h (3 Bft)
17.03.2013 22:10 4,2 C 2,3 C 95 % 992,8 hPa 0,0 l/m 0 min 0 min 0,0 UV-I 0 W/m 23,2 km/h (4 Bft)
17.03.2013 22:12 4,2 C 2,3 C 95 % 992,9 hPa 0,0 l/m 0 min 0 min 0,0 UV-I 0 W/m 12,9 km/h (3 Bft)
17.03.2013 22:14 4,2 C 2,3 C 95 % 992,9 hPa 0,0 l/m 0 min 0 min 0,0 UV-I 0 W/m 20,6 km/h (4 Bft)
17.03.2013 22:16 4,2 C 2,3 C 95 % 992,9 hPa 0,0 l/m 0 min 0 min 0,0 UV-I 0 W/m 15,4 km/h (3 Bft)
17.03.2013 22:18 4,2 C 2,3 C 95 % 992,9 hPa 0,0 l/m 0 min 0 min 0,0 UV-I 0 W/m 15,4 km/h (3 Bft)
17.03.2013 22:20 4,2 C 2,3 C 95 % 992,8 hPa 0,0 l/m 0 min 0 min 0,0 UV-I 0 W/m 18,0 km/h (3 Bft)
17.03.2013 22:22 4,1 C 2,3 C 95 % 992,9 hPa 0,0 l/m 0 min 0 min 0,0 UV-I 0 W/m 18,0 km/h (3 Bft)
17.03.2013 22:24 4,1 C 2,3 C 95 % 992,7 hPa 0,0 l/m 0 min 0 min 0,0 UV-I 0 W/m 15,4 km/h (3 Bft)
17.03.2013 22:26 4,1 C 2,3 C 95 % 992,7 hPa 0,0 l/m 0 min 0 min 0,0 UV-I 0 W/m 7,7 km/h (2 Bft)
17.03.2013 22:28 4,1 C 2,3 C 95 % 992,8 hPa 0,0 l/m 0 min 0 min 0,0 UV-I 0 W/m 18,0 km/h (3 Bft)
17.03.2013 22:30 4,1 C 2,3 C 95 % 992,8 hPa 0,0 l/m 0 min 0 min 0,0 UV-I 0 W/m 18,0 km/h (3 Bft)
17.03.2013 22:32 4,1 C 2,3 C 95 % 992,8 hPa 0,0 l/m 0 min 0 min 0,0 UV-I 0 W/m 10,3 km/h (2 Bft)
17.03.2013 22:34 4,1 C 2,3 C 95 % 992,8 hPa 0,0 l/m 0 min 0 min 0,0 UV-I 0 W/m 18,0 km/h (3 Bft)
17.03.2013 22:36 4,1 C 2,3 C 95 % 992,8 hPa 0,0 l/m 0 min 0 min 0,0 UV-I 0 W/m 23,2 km/h (4 Bft)
17.03.2013 22:38 4,1 C 2,3 C 95 % 992,7 hPa 0,0 l/m 0 min 0 min 0,0 UV-I 0 W/m 20,6 km/h (4 Bft)
17.03.2013 22:40 4,1 C 2,3 C 95 % 992,8 hPa 0,0 l/m 0 min 0 min 0,0 UV-I 0 W/m 15,4 km/h (3 Bft)
17.03.2013 22:42 4,1 C 2,3 C 95 % 992,9 hPa 0,0 l/m 0 min 0 min 0,0 UV-I 0 W/m 15,4 km/h (3 Bft)
17.03.2013 22:44 4,1 C 2,3 C 95 % 992,9 hPa 0,0 l/m 0 min 0 min 0,0 UV-I 0 W/m 12,9 km/h (3 Bft)
17.03.2013 22:46 4,1 C 2,3 C 95 % 992,8 hPa 0,0 l/m 0 min 0 min 0,0 UV-I 0 W/m 15,4 km/h (3 Bft)
17.03.2013 22:48 4,1 C 2,3 C 95 % 992,8 hPa 0,0 l/m 0 min 0 min 0,0 UV-I 0 W/m 7,7 km/h (2 Bft)
17.03.2013 22:50 4,1 C 2,3 C 95 % 992,8 hPa 0,0 l/m 0 min 0 min 0,0 UV-I 0 W/m 20,6 km/h (4 Bft)
17.03.2013 22:52 4,1 C 2,3 C 95 % 992,9 hPa 0,0 l/m 0 min 0 min 0,0 UV-I 0 W/m 10,3 km/h (2 Bft)
17.03.2013 22:54 4,1 C 2,3 C 95 % 992,8 hPa 0,0 l/m 0 min 0 min 0,0 UV-I 0 W/m 12,9 km/h (3 Bft)
17.03.2013 22:56 4,1 C 2,3 C 95 % 992,7 hPa 0,0 l/m 0 min 0 min 0,0 UV-I 0 W/m 18,0 km/h (3 Bft)
17.03.2013 22:58 4,1 C 2,9 C 95 % 992,7 hPa 0,0 l/m 0 min 0 min 0,0 UV-I 0 W/m 12,9 km/h (3 Bft)
17.03.2013 23:00 4,1 C 2,9 C 95 % 992,8 hPa 0,0 l/m 0 min 0 min 0,0 UV-I 0 W/m 15,4 km/h (3 Bft)
17.03.2013 23:02 4,1 C 2,9 C 95 % 992,9 hPa 0,0 l/m 0 min 0 min 0,0 UV-I 0 W/m 10,3 km/h (2 Bft)
17.03.2013 23:04 4,1 C 2,9 C 95 % 992,8 hPa 0,0 l/m 0 min 0 min 0,0 UV-I 0 W/m 25,7 km/h (4 Bft)
17.03.2013 23:06 4,1 C 2,9 C 95 % 992,7 hPa 0,0 l/m 0 min 0 min 0,0 UV-I 0 W/m 28,3 km/h (4 Bft)
17.03.2013 23:08 4,2 C 2,9 C 95 % 992,7 hPa 0,0 l/m 0 min 0 min 0,0 UV-I 0 W/m 15,4 km/h (3 Bft)
17.03.2013 23:10 4,2 C 2,9 C 95 % 992,7 hPa 0,0 l/m 0 min 0 min 0,0 UV-I 0 W/m 20,6 km/h (4 Bft)
17.03.2013 23:12 4,2 C 2,9 C 95 % 992,5 hPa 0,0 l/m 0 min 0 min 0,0 UV-I 0 W/m 20,6 km/h (4 Bft)
17.03.2013 23:14 4,2 C 2,9 C 95 % 992,6 hPa 0,0 l/m 0 min 0 min 0,0 UV-I 0 W/m 23,2 km/h (4 Bft)
17.03.2013 23:16 4,2 C 2,9 C 95 % 992,6 hPa 0,0 l/m 0 min 0 min 0,0 UV-I 0 W/m 20,6 km/h (4 Bft)
17.03.2013 23:18 4,2 C 2,9 C 95 % 992,6 hPa 0,0 l/m 0 min 0 min 0,0 UV-I 0 W/m 18,0 km/h (3 Bft)
17.03.2013 23:20 4,2 C 2,9 C 95 % 992,5 hPa 0,0 l/m 0 min 0 min 0,0 UV-I 0 W/m 23,2 km/h (4 Bft)
17.03.2013 23:22 4,2 C 2,9 C 95 % 992,6 hPa 0,0 l/m 0 min 0 min 0,0 UV-I 0 W/m 23,2 km/h (4 Bft)
17.03.2013 23:24 4,2 C 2,9 C 95 % 992,5 hPa 0,0 l/m 0 min 0 min 0,0 UV-I 0 W/m 25,7 km/h (4 Bft)
17.03.2013 23:26 4,3 C 2,9 C 94 % 992,6 hPa 0,0 l/m 0 min 0 min 0,0 UV-I 0 W/m 25,7 km/h (4 Bft)
17.03.2013 23:28 4,3 C 2,9 C 94 % 992,5 hPa 0,0 l/m 0 min 0 min 0,0 UV-I 0 W/m 30,9 km/h (5 Bft)
17.03.2013 23:30 4,3 C 2,9 C 94 % 992,4 hPa 0,0 l/m 0 min 0 min 0,0 UV-I 0 W/m 30,9 km/h (5 Bft)
17.03.2013 23:32 4,3 C 2,9 C 94 % 992,5 hPa 0,0 l/m 0 min 0 min 0,0 UV-I 0 W/m 25,7 km/h (4 Bft)
17.03.2013 23:34 4,3 C 2,9 C 94 % 992,4 hPa 0,0 l/m 0 min 0 min 0,0 UV-I 0 W/m 25,7 km/h (4 Bft)
17.03.2013 23:36 4,3 C 2,9 C 94 % 992,4 hPa 0,0 l/m 0 min 0 min 0,0 UV-I 0 W/m 23,2 km/h (4 Bft)
17.03.2013 23:38 4,3 C 2,9 C 93 % 992,5 hPa 0,0 l/m 0 min 0 min 0,0 UV-I 0 W/m 25,7 km/h (4 Bft)
17.03.2013 23:40 4,3 C 2,9 C 93 % 992,5 hPa 0,0 l/m 0 min 0 min 0,0 UV-I 0 W/m 18,0 km/h (3 Bft)
17.03.2013 23:42 4,3 C 2,9 C 93 % 992,5 hPa 0,0 l/m 0 min 0 min 0,0 UV-I 0 W/m 20,6 km/h (4 Bft)
17.03.2013 23:44 4,3 C 2,9 C 93 % 992,5 hPa 0,0 l/m 0 min 0 min 0,0 UV-I 0 W/m 18,0 km/h (3 Bft)
17.03.2013 23:46 4,3 C 2,9 C 93 % 992,5 hPa 0,0 l/m 0 min 0 min 0,0 UV-I 0 W/m 25,7 km/h (4 Bft)
17.03.2013 23:48 4,3 C 2,9 C 93 % 992,4 hPa 0,0 l/m 0 min 0 min 0,0 UV-I 0 W/m 20,6 km/h (4 Bft)
17.03.2013 23:50 4,3 C 2,9 C 93 % 992,5 hPa 0,0 l/m 0 min 0 min 0,0 UV-I 0 W/m 15,4 km/h (3 Bft)
17.03.2013 23:52 4,3 C 2,9 C 93 % 992,5 hPa 0,0 l/m 0 min 0 min 0,0 UV-I 0 W/m 33,5 km/h (5 Bft)
17.03.2013 23:54 4,3 C 2,9 C 93 % 992,6 hPa 0,0 l/m 0 min 0 min 0,0 UV-I 0 W/m 20,6 km/h (4 Bft)
17.03.2013 23:56 4,4 C 2,9 C 93 % 992,6 hPa 0,0 l/m 0 min 0 min 0,0 UV-I 0 W/m 15,4 km/h (3 Bft)
17.03.2013 23:58 4,3 C 2,9 C 93 % 992,6 hPa 0,0 l/m 0 min 0 min 0,0 UV-I 0 W/m 15,4 km/h (3 Bft)
_ Min-Zeit 06:52 04:22 00:00 23:30 - - - - - 05:28
Minimum _ 2,2 C 0,7 C 59 % 992,4 hPa - - - - - 0,0 km/h (0 Bft)
_ Max-Zeit 13:52 12:56 07:16 00:06 04:22 11:16 04:16 12:54 12:56 16:34
Maximum _ 9,8 C 9,0 C 97 % 1003,5 hPa 0,2 l/m 2 min 2 min 1,4 UV-I 775 W/m 46,3 km/h
O-SO (6 Bft)
Durchschnitt _ 5,0 C 3,7 C 85 % 997,7 hPa #4,2 l/m #2:12 h #4:36 h 1,0 UV-I 197 W/m 21,2 km/h (4 Bft)
© 2013 W. Hausmann